Time,TemperatureF,DewpointF,PressureIn,WindDirection,WindDirectionDegrees,WindSpeedMPH,WindSpeedGustMPH,Humidity,HourlyPrecipIn,Conditions,Clouds,dailyrainin,SoftwareType,DateUTC
2013-03-20 00:00:00,26.6,18.1,29.69,NE,45,0.0,0.0,70,0.00,RA,,0.00,WeatherDisplay:10.37,2013-03-20 04:00:00,
2013-03-20 00:01:00,26.6,17.8,29.69,WSW,248,0.0,0.0,69,0.00,RA,,0.00,WeatherDisplay:10.37,2013-03-20 04:01:00,
2013-03-20 00:05:00,26.6,16.8,29.69,NE,45,0.0,0.0,66,0.00,RA,,0.00,WeatherDisplay:10.37,2013-03-20 04:05:00,
2013-03-20 00:06:00,26.6,16.8,29.69,NNE,22,0.0,0.0,66,0.00,RA,,0.00,WeatherDisplay:10.37,2013-03-20 04:06:00,
2013-03-20 00:10:00,26.6,16.8,29.69,NNE,22,0.0,0.0,66,0.00,CLR,,0.00,WeatherDisplay:10.37,2013-03-20 04:10:00,
2013-03-20 00:11:00,26.6,16.8,29.69,NNE,22,0.0,0.0,66,0.00,CLR,,0.00,WeatherDisplay:10.37,2013-03-20 04:11:00,
2013-03-20 00:16:00,26.4,16.6,29.69,North,0,0.0,0.0,66,0.00,CLR,,0.00,WeatherDisplay:10.37,2013-03-20 04:16:00,
2013-03-20 00:17:00,26.4,16.6,29.69,ENE,68,0.0,0.0,66,0.00,CLR,,0.00,WeatherDisplay:10.37,2013-03-20 04:17:00,
2013-03-20 00:22:00,26.2,16.8,29.69,NNE,22,0.0,0.0,67,0.00,CLR,,0.00,WeatherDisplay:10.37,2013-03-20 04:22:00,
2013-03-20 00:27:00,26.1,16.6,29.69,North,0,0.0,0.0,67,0.00,CLR,,0.00,WeatherDisplay:10.37,2013-03-20 04:27:00,
2013-03-20 00:32:00,26.1,16.6,29.69,NNW,338,0.0,0.0,67,0.00,CLR,,0.00,WeatherDisplay:10.37,2013-03-20 04:32:00,
2013-03-20 00:37:00,25.9,16.8,29.69,NNW,338,0.0,0.0,68,0.00,CLR,,0.00,WeatherDisplay:10.37,2013-03-20 04:37:00,
2013-03-20 00:42:00,25.9,16.8,29.69,SW,225,0.0,0.0,68,0.00,CLR,,0.00,WeatherDisplay:10.37,2013-03-20 04:42:00,
2013-03-20 00:43:00,25.9,16.8,29.69,SW,225,0.0,0.0,68,0.00,CLR,,0.00,WeatherDisplay:10.37,2013-03-20 04:43:00,
2013-03-20 00:47:00,26.1,16.6,29.69,NNW,338,0.0,0.0,67,0.00,CLR,,0.00,WeatherDisplay:10.37,2013-03-20 04:47:00,
2013-03-20 00:48:00,26.1,16.6,29.69,WSW,248,0.0,0.0,67,0.00,CLR,,0.00,WeatherDisplay:10.37,2013-03-20 04:48:00,
2013-03-20 00:53:00,25.9,16.8,29.69,ENE,68,0.0,0.0,68,0.00,CLR,,0.00,WeatherDisplay:10.37,2013-03-20 04:53:00,
2013-03-20 00:54:00,25.9,16.8,29.69,SSE,158,0.0,0.0,68,0.00,CLR,,0.00,WeatherDisplay:10.37,2013-03-20 04:54:00,
2013-03-20 00:58:00,25.9,16.8,29.69,WSW,248,0.0,0.0,68,0.00,CLR,,0.00,WeatherDisplay:10.37,2013-03-20 04:58:00,
2013-03-20 00:59:00,25.9,17.1,29.69,NNW,338,0.0,0.0,69,0.00,CLR,,0.00,WeatherDisplay:10.37,2013-03-20 04:59:00,
2013-03-20 01:03:00,25.9,17.4,29.69,WNW,292,0.0,0.0,70,0.00,CLR,,0.00,WeatherDisplay:10.37,2013-03-20 05:03:00,
2013-03-20 01:04:00,25.7,17.3,29.69,ENE,68,0.0,0.0,70,0.00,CLR,,0.00,WeatherDisplay:10.37,2013-03-20 05:04:00,
2013-03-20 01:08:00,25.7,17.6,29.69,NNW,338,0.0,0.0,71,0.00,CLR,,0.00,WeatherDisplay:10.37,2013-03-20 05:08:00,
2013-03-20 01:09:00,25.7,17.6,29.69,NW,315,0.0,0.0,71,0.00,CLR,,0.00,WeatherDisplay:10.37,2013-03-20 05:09:00,
2013-03-20 01:13:00,25.7,17.6,29.69,NNW,338,0.0,0.0,71,0.00,CLR,,0.00,WeatherDisplay:10.37,2013-03-20 05:13:00,
2013-03-20 01:14:00,25.7,17.9,29.69,NW,315,0.0,0.0,72,0.00,CLR,,0.00,WeatherDisplay:10.37,2013-03-20 05:14:00,
2013-03-20 01:18:00,25.7,17.9,29.69,North,0,0.0,0.0,72,0.00,CLR,,0.00,WeatherDisplay:10.37,2013-03-20 05:18:00,
2013-03-20 01:20:00,25.5,17.7,29.69,NNE,22,0.0,0.0,72,0.00,CLR,,0.00,WeatherDisplay:10.37,2013-03-20 05:20:00,
2013-03-20 01:23:00,25.5,17.7,29.69,NNW,338,0.0,0.0,72,0.00,CLR,,0.00,WeatherDisplay:10.37,2013-03-20 05:23:00,
2013-03-20 01:25:00,25.5,17.7,29.69,ENE,68,0.0,0.0,72,0.00,CLR,,0.00,WeatherDisplay:10.37,2013-03-20 05:25:00,
2013-03-20 01:28:00,25.5,17.7,29.69,East,90,0.0,0.0,72,0.00,CLR,,0.00,WeatherDisplay:10.37,2013-03-20 05:28:00,
2013-03-20 01:30:00,25.5,17.4,29.69,SW,225,0.0,0.0,71,0.00,CLR,,0.00,WeatherDisplay:10.37,2013-03-20 05:30:00,
2013-03-20 01:33:00,25.3,17.2,29.69,NNW,338,0.0,0.0,71,0.00,CLR,,0.00,WeatherDisplay:10.37,2013-03-20 05:33:00,
2013-03-20 01:34:00,25.3,17.2,29.69,NNW,338,0.0,0.0,71,0.00,CLR,,0.00,WeatherDisplay:10.37,2013-03-20 05:34:00,
2013-03-20 01:35:00,25.3,17.2,29.69,West,270,0.0,0.0,71,0.00,CLR,,0.00,WeatherDisplay:10.37,2013-03-20 05:35:00,
2013-03-20 01:38:00,25.3,17.9,29.69,NNW,338,0.0,0.0,73,0.00,CLR,,0.00,WeatherDisplay:10.37,2013-03-20 05:38:00,
2013-03-20 01:39:00,25.3,17.9,29.69,NNE,22,0.0,0.0,73,0.00,CLR,,0.00,WeatherDisplay:10.37,2013-03-20 05:39:00,
2013-03-20 01:40:00,25.3,17.9,29.69,NW,315,0.0,0.0,73,0.00,CLR,,0.00,WeatherDisplay:10.37,2013-03-20 05:40:00,
2013-03-20 01:43:00,25.2,18.0,29.69,NNW,338,0.0,0.0,74,0.00,CLR,,0.00,WeatherDisplay:10.37,2013-03-20 05:43:00,
2013-03-20 01:44:00,25.2,18.0,29.69,NNW,338,0.0,0.0,74,0.00,CLR,,0.00,WeatherDisplay:10.37,2013-03-20 05:44:00,
2013-03-20 01:45:00,25.2,18.3,29.69,NNW,338,0.0,0.0,75,0.00,CLR,,0.00,WeatherDisplay:10.37,2013-03-20 05:45:00,
2013-03-20 01:48:00,25.2,18.3,29.69,ESE,112,0.0,0.0,75,0.00,CLR,,0.00,WeatherDisplay:10.37,2013-03-20 05:48:00,
2013-03-20 01:49:00,25.2,18.3,29.69,ESE,112,0.0,0.0,75,0.00,CLR,,0.00,WeatherDisplay:10.37,2013-03-20 05:49:00,
2013-03-20 01:50:00,25.2,18.3,29.69,ESE,112,0.0,0.0,75,0.00,CLR,,0.00,WeatherDisplay:10.37,2013-03-20 05:50:00,
2013-03-20 01:53:00,25.2,18.3,29.69,ENE,68,0.0,0.0,75,0.00,CLR,,0.00,WeatherDisplay:10.37,2013-03-20 05:53:00,
2013-03-20 01:54:00,25.2,18.3,29.69,West,270,0.0,0.0,75,0.00,CLR,,0.00,WeatherDisplay:10.37,2013-03-20 05:54:00,
2013-03-20 01:55:00,25.0,18.2,29.69,NNW,338,0.0,0.0,75,0.00,CLR,,0.00,WeatherDisplay:10.37,2013-03-20 05:55:00,
2013-03-20 01:58:00,25.0,18.2,29.69,WNW,292,0.0,0.0,75,0.00,CLR,,0.00,WeatherDisplay:10.37,2013-03-20 05:58:00,
2013-03-20 01:59:00,25.0,18.2,29.69,NNW,338,0.0,0.0,75,0.00,CLR,,0.00,WeatherDisplay:10.37,2013-03-20 05:59:00,
2013-03-20 02:00:00,25.0,18.5,29.69,WSW,248,0.0,0.0,76,0.00,CLR,,0.00,WeatherDisplay:10.37,2013-03-20 06:00:00,
2013-03-20 02:03:00,24.8,18.3,29.69,NNW,338,0.0,0.0,76,0.00,CLR,,0.00,WeatherDisplay:10.37,2013-03-20 06:03:00,
2013-03-20 02:04:00,24.8,18.6,29.69,NW,315,0.0,0.0,77,0.00,CLR,,0.00,WeatherDisplay:10.37,2013-03-20 06:04:00,
2013-03-20 02:05:00,24.8,18.6,29.69,WNW,292,0.0,0.0,77,0.00,CLR,,0.00,WeatherDisplay:10.37,2013-03-20 06:05:00,
2013-03-20 02:08:00,24.6,18.7,29.69,WNW,292,0.0,0.0,78,0.00,CLR,,0.00,WeatherDisplay:10.37,2013-03-20 06:08:00,
2013-03-20 02:09:00,24.6,18.7,29.69,SSE,158,0.0,0.0,78,0.00,CLR,,0.00,WeatherDisplay:10.37,2013-03-20 06:09:00,
2013-03-20 02:10:00,24.6,18.7,29.69,NNE,22,0.0,0.0,78,0.00,CLR,,0.00,WeatherDisplay:10.37,2013-03-20 06:10:00,
2013-03-20 02:13:00,24.6,18.7,29.69,West,270,0.0,0.0,78,0.00,CLR,,0.00,WeatherDisplay:10.37,2013-03-20 06:13:00,
2013-03-20 02:14:00,24.6,18.7,29.69,WNW,292,0.0,0.0,78,0.00,CLR,,0.00,WeatherDisplay:10.37,2013-03-20 06:14:00,
2013-03-20 02:15:00,24.6,18.7,29.69,NNW,338,0.0,0.0,78,0.00,CLR,,0.00,WeatherDisplay:10.37,2013-03-20 06:15:00,
2013-03-20 02:19:00,24.4,18.6,29.69,WNW,292,0.0,0.0,78,0.00,CLR,,0.00,WeatherDisplay:10.37,2013-03-20 06:19:00,
2013-03-20 02:20:00,24.4,18.9,29.69,NNW,338,0.0,0.0,79,0.00,CLR,,0.00,WeatherDisplay:10.37,2013-03-20 06:20:00,
2013-03-20 02:24:00,24.4,18.9,29.69,SSW,202,0.0,0.0,79,0.00,CLR,,0.00,WeatherDisplay:10.37,2013-03-20 06:24:00,
2013-03-20 02:25:00,24.4,18.9,29.69,ESE,112,0.0,0.0,79,0.00,CLR,,0.00,WeatherDisplay:10.37,2013-03-20 06:25:00,
2013-03-20 02:29:00,24.4,19.2,29.69,NNE,22,0.0,0.0,80,0.00,CLR,,0.00,WeatherDisplay:10.37,2013-03-20 06:29:00,
2013-03-20 02:30:00,24.4,19.2,29.69,North,0,0.0,0.0,80,0.00,CLR,,0.00,WeatherDisplay:10.37,2013-03-20 06:30:00,
2013-03-20 02:34:00,24.4,19.2,29.69,NNW,338,0.0,0.0,80,0.00,CLR,,0.00,WeatherDisplay:10.37,2013-03-20 06:34:00,
2013-03-20 02:35:00,24.4,19.2,29.69,ENE,68,0.0,0.0,80,0.00,CLR,,0.00,WeatherDisplay:10.37,2013-03-20 06:35:00,
2013-03-20 02:36:00,24.4,19.2,29.69,NNE,22,0.0,0.0,80,0.00,CLR,,0.00,WeatherDisplay:10.37,2013-03-20 06:36:00,
2013-03-20 02:39:00,24.4,19.4,29.69,NNE,22,0.0,0.0,81,0.00,CLR,,0.00,WeatherDisplay:10.37,2013-03-20 06:39:00,
2013-03-20 02:40:00,24.4,19.4,29.69,North,0,0.0,0.0,81,0.00,CLR,,0.00,WeatherDisplay:10.37,2013-03-20 06:40:00,
2013-03-20 02:42:00,24.4,19.4,29.69,WNW,292,0.0,0.0,81,0.00,CLR,,0.00,WeatherDisplay:10.37,2013-03-20 06:42:00,
2013-03-20 02:44:00,24.4,19.4,29.69,NNE,22,0.0,0.0,81,0.00,CLR,,0.00,WeatherDisplay:10.37,2013-03-20 06:44:00,
2013-03-20 02:45:00,24.4,19.4,29.69,WNW,292,0.0,0.0,81,0.00,CLR,,0.00,WeatherDisplay:10.37,2013-03-20 06:45:00,
2013-03-20 02:47:00,24.4,19.7,29.69,NNW,338,0.0,0.0,82,0.00,CLR,,0.00,WeatherDisplay:10.37,2013-03-20 06:47:00,
2013-03-20 02:49:00,24.4,19.7,29.69,WNW,292,0.0,0.0,82,0.00,CLR,,0.00,WeatherDisplay:10.37,2013-03-20 06:49:00,
2013-03-20 02:50:00,24.4,19.7,29.69,ENE,68,0.0,0.0,82,0.00,CLR,,0.00,WeatherDisplay:10.37,2013-03-20 06:50:00,
2013-03-20 02:52:00,24.4,19.7,29.69,North,0,0.0,0.0,82,0.00,CLR,,0.00,WeatherDisplay:10.37,2013-03-20 06:52:00,
2013-03-20 02:54:00,24.4,19.7,29.69,NNE,22,0.0,0.0,82,0.00,CLR,,0.00,WeatherDisplay:10.37,2013-03-20 06:54:00,
2013-03-20 02:55:00,24.4,19.7,29.69,WNW,292,0.0,0.0,82,0.00,CLR,,0.00,WeatherDisplay:10.37,2013-03-20 06:55:00,
2013-03-20 02:56:00,24.4,19.7,29.69,NNW,338,0.0,0.0,82,0.00,CLR,,0.00,WeatherDisplay:10.37,2013-03-20 06:56:00,
2013-03-20 02:57:00,24.4,19.7,29.69,NNW,338,0.0,0.0,82,0.00,CLR,,0.00,WeatherDisplay:10.37,2013-03-20 06:57:00,
2013-03-20 02:59:00,24.4,19.7,29.69,East,90,0.0,0.0,82,0.00,CLR,,0.00,WeatherDisplay:10.37,2013-03-20 06:59:00,
2013-03-20 03:00:00,24.4,19.7,29.69,East,90,0.0,0.0,82,0.00,CLR,,0.00,WeatherDisplay:10.37,2013-03-20 07:00:00,
2013-03-20 03:01:00,24.6,19.9,29.69,North,0,0.0,0.0,82,0.00,CLR,,0.00,WeatherDisplay:10.37,2013-03-20 07:01:00,
2013-03-20 03:02:00,24.6,19.9,29.69,North,0,0.0,0.0,82,0.00,CLR,,0.00,WeatherDisplay:10.37,2013-03-20 07:02:00,
2013-03-20 03:04:00,24.6,19.9,29.69,NNW,338,0.0,0.0,82,0.00,CLR,,0.00,WeatherDisplay:10.37,2013-03-20 07:04:00,
2013-03-20 03:05:00,24.6,19.9,29.69,NW,315,0.0,0.0,82,0.00,CLR,,0.00,WeatherDisplay:10.37,2013-03-20 07:05:00,
2013-03-20 03:06:00,24.6,19.9,29.69,NNE,22,0.0,0.0,82,0.00,CLR,,0.00,WeatherDisplay:10.37,2013-03-20 07:06:00,
2013-03-20 03:07:00,24.6,19.9,29.69,ESE,112,0.0,0.0,82,0.00,CLR,,0.00,WeatherDisplay:10.37,2013-03-20 07:07:00,
2013-03-20 03:09:00,24.6,19.9,29.69,NE,45,0.0,0.0,82,0.00,CLR,,0.00,WeatherDisplay:10.37,2013-03-20 07:09:00,
2013-03-20 03:12:00,24.6,19.9,29.69,ESE,112,0.0,0.0,82,0.00,CLR,,0.00,WeatherDisplay:10.37,2013-03-20 07:12:00,
2013-03-20 03:13:00,24.6,19.9,29.69,NW,315,0.0,0.0,82,0.00,CLR,,0.00,WeatherDisplay:10.37,2013-03-20 07:13:00,
2013-03-20 03:14:00,24.6,19.6,29.69,SE,135,0.0,0.0,81,0.00,CLR,,0.00,WeatherDisplay:10.37,2013-03-20 07:14:00,
2013-03-20 03:17:00,24.8,19.8,29.69,ESE,112,0.0,0.0,81,0.00,CLR,,0.00,WeatherDisplay:10.37,2013-03-20 07:17:00,
2013-03-20 03:18:00,24.8,19.8,29.69,ESE,112,0.0,0.0,81,0.00,CLR,,0.00,WeatherDisplay:10.37,2013-03-20 07:18:00,
2013-03-20 03:19:00,24.8,19.8,29.69,ENE,68,0.0,0.0,81,0.00,CLR,,0.00,WeatherDisplay:10.37,2013-03-20 07:19:00,
2013-03-20 03:22:00,24.6,19.6,29.69,WNW,292,0.0,0.0,81,0.00,CLR,,0.00,WeatherDisplay:10.37,2013-03-20 07:22:00,
2013-03-20 03:23:00,24.6,19.6,29.69,ENE,68,0.0,0.0,81,0.00,CLR,,0.00,WeatherDisplay:10.37,2013-03-20 07:23:00,
2013-03-20 03:24:00,24.6,19.6,29.69,WNW,292,0.0,0.0,81,0.00,CLR,,0.00,WeatherDisplay:10.37,2013-03-20 07:24:00,
2013-03-20 03:27:00,24.6,19.6,29.69,NNE,22,0.0,0.0,81,0.00,CLR,,0.00,WeatherDisplay:10.37,2013-03-20 07:27:00,
2013-03-20 03:28:00,24.6,19.6,29.69,NNE,22,0.0,0.0,81,0.00,CLR,,0.00,WeatherDisplay:10.37,2013-03-20 07:28:00,
2013-03-20 03:29:00,24.6,19.6,29.66,WNW,292,0.0,0.0,81,0.00,CLR,,0.00,WeatherDisplay:10.37,2013-03-20 07:29:00,
2013-03-20 03:33:00,24.6,19.6,29.66,NW,315,0.0,0.0,81,0.00,CLR,,0.00,WeatherDisplay:10.37,2013-03-20 07:33:00,
2013-03-20 03:34:00,24.6,19.6,29.66,WNW,292,0.0,0.0,81,0.00,CLR,,0.00,WeatherDisplay:10.37,2013-03-20 07:34:00,
2013-03-20 03:38:00,24.6,19.6,29.66,NNW,338,0.0,0.0,81,0.00,CLR,,0.00,WeatherDisplay:10.37,2013-03-20 07:38:00,
2013-03-20 03:39:00,24.6,19.3,29.66,ENE,68,0.0,0.0,80,0.00,CLR,,0.00,WeatherDisplay:10.37,2013-03-20 07:39:00,
2013-03-20 03:43:00,24.6,19.3,29.66,NNE,22,0.0,0.0,80,0.00,CLR,,0.00,WeatherDisplay:10.37,2013-03-20 07:43:00,
2013-03-20 03:44:00,24.6,19.3,29.66,West,270,0.0,0.0,80,0.00,CLR,,0.00,WeatherDisplay:10.37,2013-03-20 07:44:00,
2013-03-20 03:48:00,24.4,18.9,29.66,North,0,0.0,0.0,79,0.00,CLR,,0.00,WeatherDisplay:10.37,2013-03-20 07:48:00,
2013-03-20 03:49:00,24.4,18.9,29.66,NNE,22,0.0,0.0,79,0.00,CLR,,0.00,WeatherDisplay:10.37,2013-03-20 07:49:00,
2013-03-20 03:53:00,24.4,18.9,29.66,East,90,0.0,0.0,79,0.00,CLR,,0.00,WeatherDisplay:10.37,2013-03-20 07:53:00,
2013-03-20 03:54:00,24.4,18.9,29.66,NNE,22,0.0,0.0,79,0.00,CLR,,0.00,WeatherDisplay:10.37,2013-03-20 07:54:00,
2013-03-20 03:58:00,24.4,18.9,29.66,NNW,338,0.0,0.0,79,0.00,CLR,,0.00,WeatherDisplay:10.37,2013-03-20 07:58:00,
2013-03-20 04:00:00,24.4,18.9,29.66,NNE,22,0.0,0.0,79,0.00,CLR,,0.00,WeatherDisplay:10.37,2013-03-20 08:00:00,
2013-03-20 04:03:00,24.4,18.9,29.66,SSE,158,0.0,0.0,79,0.00,CLR,,0.00,WeatherDisplay:10.37,2013-03-20 08:03:00,
2013-03-20 04:04:00,24.4,18.9,29.66,WSW,248,0.0,0.0,79,0.00,CLR,,0.00,WeatherDisplay:10.37,2013-03-20 08:04:00,
2013-03-20 04:05:00,24.3,18.7,29.66,SSE,158,0.0,0.0,79,0.00,CLR,,0.00,WeatherDisplay:10.37,2013-03-20 08:05:00,
2013-03-20 04:08:00,24.3,18.7,29.66,WNW,292,0.0,0.0,79,0.00,CLR,,0.00,WeatherDisplay:10.37,2013-03-20 08:08:00,
2013-03-20 04:09:00,24.3,18.7,29.66,WNW,292,0.0,0.0,79,0.00,CLR,,0.00,WeatherDisplay:10.37,2013-03-20 08:09:00,
2013-03-20 04:10:00,24.3,18.7,29.66,NW,315,0.0,0.0,79,0.00,CLR,,0.00,WeatherDisplay:10.37,2013-03-20 08:10:00,
2013-03-20 04:13:00,24.3,18.7,29.66,ESE,112,0.0,0.0,79,0.00,CLR,,0.00,WeatherDisplay:10.37,2013-03-20 08:13:00,
2013-03-20 04:14:00,24.3,18.7,29.66,NNW,338,0.0,0.0,79,0.00,CLR,,0.00,WeatherDisplay:10.37,2013-03-20 08:14:00,
2013-03-20 04:15:00,24.3,18.7,29.66,SSE,158,0.0,0.0,79,0.00,CLR,,0.00,WeatherDisplay:10.37,2013-03-20 08:15:00,
2013-03-20 04:18:00,24.3,19.0,29.66,ESE,112,0.0,0.0,80,0.00,CLR,,0.00,WeatherDisplay:10.37,2013-03-20 08:18:00,
2013-03-20 04:19:00,24.3,19.0,29.66,ENE,68,0.0,0.0,80,0.00,CLR,,0.00,WeatherDisplay:10.37,2013-03-20 08:19:00,
2013-03-20 04:20:00,24.1,18.8,29.66,ENE,68,0.0,0.0,80,0.00,CLR,,0.00,WeatherDisplay:10.37,2013-03-20 08:20:00,
2013-03-20 04:23:00,24.1,18.8,29.66,ESE,112,0.0,0.0,80,0.00,CLR,,0.00,WeatherDisplay:10.37,2013-03-20 08:23:00,
2013-03-20 04:24:00,24.1,18.8,29.66,WNW,292,0.0,0.0,80,0.00,CLR,,0.00,WeatherDisplay:10.37,2013-03-20 08:24:00,
2013-03-20 04:25:00,24.1,18.8,29.66,NNW,338,0.0,0.0,80,0.00,CLR,,0.00,WeatherDisplay:10.37,2013-03-20 08:25:00,
2013-03-20 04:28:00,23.9,18.6,29.66,West,270,0.0,0.0,80,0.00,CLR,,0.00,WeatherDisplay:10.37,2013-03-20 08:28:00,
2013-03-20 04:29:00,23.9,18.6,29.66,North,0,0.0,0.0,80,0.00,CLR,,0.00,WeatherDisplay:10.37,2013-03-20 08:29:00,
2013-03-20 04:30:00,23.9,18.6,29.66,WNW,292,0.0,0.0,80,0.00,CLR,,0.00,WeatherDisplay:10.37,2013-03-20 08:30:00,
2013-03-20 04:34:00,23.9,18.9,29.66,ENE,68,0.0,0.0,81,0.00,CLR,,0.00,WeatherDisplay:10.37,2013-03-20 08:34:00,
2013-03-20 04:35:00,23.9,18.9,29.66,North,0,0.0,0.0,81,0.00,CLR,,0.00,WeatherDisplay:10.37,2013-03-20 08:35:00,
2013-03-20 04:39:00,23.7,18.7,29.66,NNE,22,0.0,0.0,81,0.00,CLR,,0.00,WeatherDisplay:10.37,2013-03-20 08:39:00,
2013-03-20 04:40:00,23.7,18.7,29.66,West,270,0.0,0.0,81,0.00,CLR,,0.00,WeatherDisplay:10.37,2013-03-20 08:40:00,
2013-03-20 04:41:00,23.7,18.7,29.66,WNW,292,0.0,0.0,81,0.00,CLR,,0.00,WeatherDisplay:10.37,2013-03-20 08:41:00,
2013-03-20 04:44:00,23.7,18.7,29.66,NNW,338,0.0,0.0,81,0.00,CLR,,0.00,WeatherDisplay:10.37,2013-03-20 08:44:00,
2013-03-20 04:45:00,23.7,18.7,29.66,NNE,22,0.0,0.0,81,0.00,CLR,,0.00,WeatherDisplay:10.37,2013-03-20 08:45:00,
2013-03-20 04:47:00,23.7,18.7,29.66,NNW,338,0.0,0.0,81,0.00,CLR,,0.00,WeatherDisplay:10.37,2013-03-20 08:47:00,
2013-03-20 04:49:00,23.7,18.7,29.66,NNW,338,0.0,0.0,81,0.00,CLR,,0.00,WeatherDisplay:10.37,2013-03-20 08:49:00,
2013-03-20 04:50:00,23.7,18.7,29.66,WNW,292,0.0,0.0,81,0.00,CLR,,0.00,WeatherDisplay:10.37,2013-03-20 08:50:00,
2013-03-20 04:52:00,23.7,18.7,29.66,ENE,68,0.0,0.0,81,0.00,CLR,,0.00,WeatherDisplay:10.37,2013-03-20 08:52:00,
2013-03-20 04:54:00,23.7,18.7,29.66,WNW,292,0.0,0.0,81,0.00,CLR,,0.00,WeatherDisplay:10.37,2013-03-20 08:54:00,
2013-03-20 04:55:00,23.7,18.7,29.66,NNE,22,0.0,0.0,81,0.00,CLR,,0.00,WeatherDisplay:10.37,2013-03-20 08:55:00,
2013-03-20 04:57:00,23.7,18.7,29.66,WNW,292,0.0,0.0,81,0.00,CLR,,0.00,WeatherDisplay:10.37,2013-03-20 08:57:00,
2013-03-20 04:59:00,23.7,18.7,29.66,East,90,0.0,0.0,81,0.00,CLR,,0.00,WeatherDisplay:10.37,2013-03-20 08:59:00,
2013-03-20 05:00:00,23.7,18.7,29.66,SE,135,0.0,0.0,81,0.00,CLR,,0.00,WeatherDisplay:10.37,2013-03-20 09:00:00,
2013-03-20 05:02:00,23.7,18.7,29.66,NNE,22,0.0,0.0,81,0.00,CLR,,0.00,WeatherDisplay:10.37,2013-03-20 09:02:00,
2013-03-20 05:04:00,23.7,18.7,29.66,ENE,68,0.0,0.0,81,0.00,CLR,,0.00,WeatherDisplay:10.37,2013-03-20 09:04:00,
2013-03-20 05:05:00,23.7,18.7,29.66,ESE,112,0.0,0.0,81,0.00,CLR,,0.00,WeatherDisplay:10.37,2013-03-20 09:05:00,
2013-03-20 05:08:00,23.7,18.7,29.66,NW,315,0.0,0.0,81,0.00,CLR,,0.00,WeatherDisplay:10.37,2013-03-20 09:08:00,
2013-03-20 05:09:00,23.7,18.7,29.66,NNE,22,0.0,0.0,81,0.00,CLR,,0.00,WeatherDisplay:10.37,2013-03-20 09:09:00,
2013-03-20 05:10:00,23.7,18.7,29.66,WNW,292,0.0,0.0,81,0.00,CLR,,0.00,WeatherDisplay:10.37,2013-03-20 09:10:00,
2013-03-20 05:11:00,23.7,18.7,29.66,NE,45,0.0,0.0,81,0.00,CLR,,0.00,WeatherDisplay:10.37,2013-03-20 09:11:00,
2013-03-20 05:13:00,23.5,18.6,29.66,WNW,292,0.0,0.0,81,0.00,CLR,,0.00,WeatherDisplay:10.37,2013-03-20 09:13:00,
2013-03-20 05:15:00,23.5,18.6,29.66,NNE,22,0.0,0.0,81,0.00,CLR,,0.00,WeatherDisplay:10.37,2013-03-20 09:15:00,
2013-03-20 05:17:00,23.5,18.6,29.66,East,90,0.0,0.0,81,0.00,CLR,,0.00,WeatherDisplay:10.37,2013-03-20 09:17:00,
2013-03-20 05:18:00,23.5,18.6,29.66,NNE,22,0.0,0.0,81,0.00,CLR,,0.00,WeatherDisplay:10.37,2013-03-20 09:18:00,
2013-03-20 05:20:00,23.5,18.6,29.66,SSW,202,0.0,0.0,81,0.00,CLR,,0.00,WeatherDisplay:10.37,2013-03-20 09:20:00,
2013-03-20 05:22:00,23.5,18.6,29.66,WSW,248,0.0,0.0,81,0.00,CLR,,0.00,WeatherDisplay:10.37,2013-03-20 09:22:00,
2013-03-20 05:23:00,23.5,18.6,29.66,NNW,338,0.0,0.0,81,0.00,CLR,,0.00,WeatherDisplay:10.37,2013-03-20 09:23:00,
2013-03-20 05:25:00,23.7,18.7,29.66,NNW,338,0.0,0.0,81,0.00,CLR,,0.00,WeatherDisplay:10.37,2013-03-20 09:25:00,
2013-03-20 05:26:00,23.7,18.7,29.66,WNW,292,0.0,0.0,81,0.00,CLR,,0.00,WeatherDisplay:10.37,2013-03-20 09:26:00,
2013-03-20 05:27:00,23.7,18.7,29.66,NW,315,0.0,0.0,81,0.00,CLR,,0.00,WeatherDisplay:10.37,2013-03-20 09:27:00,
2013-03-20 05:28:00,23.7,18.7,29.66,WSW,248,0.0,0.0,81,0.00,CLR,,0.00,WeatherDisplay:10.37,2013-03-20 09:28:00,
2013-03-20 05:30:00,23.7,18.5,29.66,WNW,292,0.0,0.0,80,0.00,CLR,,0.00,WeatherDisplay:10.37,2013-03-20 09:30:00,
2013-03-20 05:31:00,23.7,18.5,29.66,North,0,0.0,0.0,80,0.00,CLR,,0.00,WeatherDisplay:10.37,2013-03-20 09:31:00,
2013-03-20 05:32:00,23.5,18.3,29.66,NNE,22,0.0,0.0,80,0.00,CLR,,0.00,WeatherDisplay:10.37,2013-03-20 09:32:00,
2013-03-20 05:34:00,23.5,18.3,29.66,West,270,0.0,0.0,80,0.00,CLR,,0.00,WeatherDisplay:10.37,2013-03-20 09:34:00,
2013-03-20 05:35:00,23.7,18.5,29.66,North,0,0.0,0.0,80,0.00,CLR,,0.00,WeatherDisplay:10.37,2013-03-20 09:35:00,
2013-03-20 05:36:00,23.7,18.5,29.66,NNW,338,0.0,0.0,80,0.00,CLR,,0.00,WeatherDisplay:10.37,2013-03-20 09:36:00,
2013-03-20 05:37:00,23.7,18.5,29.66,NNW,338,0.0,0.0,80,0.00,CLR,,0.00,WeatherDisplay:10.37,2013-03-20 09:37:00,
2013-03-20 05:39:00,23.7,18.5,29.66,NE,45,0.0,0.0,80,0.00,CLR,,0.00,WeatherDisplay:10.37,2013-03-20 09:39:00,
2013-03-20 05:40:00,23.7,18.5,29.66,WNW,292,0.0,0.0,80,0.00,CLR,,0.00,WeatherDisplay:10.37,2013-03-20 09:40:00,
2013-03-20 05:42:00,23.7,18.5,29.66,North,0,0.0,0.0,80,0.00,CLR,,0.00,WeatherDisplay:10.37,2013-03-20 09:42:00,
2013-03-20 05:43:00,23.7,18.5,29.66,East,90,0.0,0.0,80,0.00,CLR,,0.00,WeatherDisplay:10.37,2013-03-20 09:43:00,
2013-03-20 05:44:00,23.7,18.5,29.66,West,270,0.0,0.0,80,0.00,CLR,,0.00,WeatherDisplay:10.37,2013-03-20 09:44:00,
2013-03-20 05:45:00,23.5,18.3,29.66,NE,45,0.0,0.0,80,0.00,CLR,,0.00,WeatherDisplay:10.37,2013-03-20 09:45:00,
2013-03-20 05:47:00,23.7,18.5,29.66,WNW,292,0.0,0.0,80,0.00,CLR,,0.00,WeatherDisplay:10.37,2013-03-20 09:47:00,
2013-03-20 05:48:00,23.7,18.5,29.66,ENE,68,0.0,0.0,80,0.00,CLR,,0.00,WeatherDisplay:10.37,2013-03-20 09:48:00,
2013-03-20 05:49:00,23.7,18.5,29.66,NNW,338,0.0,0.0,80,0.00,CLR,,0.00,WeatherDisplay:10.37,2013-03-20 09:49:00,
2013-03-20 05:50:00,23.7,18.5,29.66,West,270,0.0,0.0,80,0.00,CLR,,0.00,WeatherDisplay:10.37,2013-03-20 09:50:00,
2013-03-20 05:52:00,23.7,18.5,29.66,NNE,22,0.0,0.0,80,0.00,CLR,,0.00,WeatherDisplay:10.37,2013-03-20 09:52:00,
2013-03-20 05:53:00,23.7,18.5,29.66,NW,315,0.0,0.0,80,0.00,CLR,,0.00,WeatherDisplay:10.37,2013-03-20 09:53:00,
2013-03-20 05:54:00,23.7,18.5,29.66,NNW,338,0.0,0.0,80,0.00,CLR,,0.00,WeatherDisplay:10.37,2013-03-20 09:54:00,
2013-03-20 05:55:00,23.7,18.5,29.66,ENE,68,0.0,0.0,80,0.00,CLR,,0.00,WeatherDisplay:10.37,2013-03-20 09:55:00,
2013-03-20 05:57:00,23.7,18.5,29.66,NNW,338,0.0,0.0,80,0.00,CLR,,0.00,WeatherDisplay:10.37,2013-03-20 09:57:00,
2013-03-20 05:58:00,23.7,18.5,29.66,WSW,248,0.0,0.0,80,0.00,CLR,,0.00,WeatherDisplay:10.37,2013-03-20 09:58:00,
2013-03-20 05:59:00,23.7,18.5,29.66,WNW,292,0.0,0.0,80,0.00,CLR,,0.00,WeatherDisplay:10.37,2013-03-20 09:59:00,
2013-03-20 06:00:00,23.7,18.5,29.66,NNW,338,0.0,0.0,80,0.00,CLR,,0.00,WeatherDisplay:10.37,2013-03-20 10:00:00,
2013-03-20 06:02:00,23.7,18.5,29.66,ENE,68,0.0,0.0,80,0.00,CLR,,0.00,WeatherDisplay:10.37,2013-03-20 10:02:00,
2013-03-20 06:04:00,23.7,18.5,29.66,NNE,22,0.0,0.0,80,0.00,CLR,,0.00,WeatherDisplay:10.37,2013-03-20 10:04:00,
2013-03-20 06:05:00,23.7,18.5,29.66,WNW,292,0.0,0.0,80,0.00,CLR,,0.00,WeatherDisplay:10.37,2013-03-20 10:05:00,
2013-03-20 06:07:00,23.7,18.5,29.66,NNW,338,0.0,0.0,80,0.00,CLR,,0.00,WeatherDisplay:10.37,2013-03-20 10:07:00,
2013-03-20 06:09:00,23.7,18.5,29.66,East,90,0.0,0.0,80,0.00,CLR,,0.00,WeatherDisplay:10.37,2013-03-20 10:09:00,
2013-03-20 06:10:00,23.7,18.5,29.66,North,0,0.0,0.0,80,0.00,CLR,,0.00,WeatherDisplay:10.37,2013-03-20 10:10:00,
2013-03-20 06:12:00,23.9,18.6,29.66,North,0,0.0,0.0,80,0.00,CLR,,0.00,WeatherDisplay:10.37,2013-03-20 10:12:00,
2013-03-20 06:14:00,23.9,18.9,29.66,NNW,338,0.0,0.0,81,0.00,CLR,,0.00,WeatherDisplay:10.37,2013-03-20 10:14:00,
2013-03-20 06:15:00,24.1,19.1,29.66,NE,45,0.0,0.0,81,0.00,CLR,,0.00,WeatherDisplay:10.37,2013-03-20 10:15:00,
2013-03-20 06:17:00,24.1,19.1,29.66,NNW,338,0.0,0.0,81,0.00,CLR,,0.00,WeatherDisplay:10.37,2013-03-20 10:17:00,
2013-03-20 06:19:00,24.1,19.1,29.66,WNW,292,0.0,0.0,81,0.00,CLR,,0.00,WeatherDisplay:10.37,2013-03-20 10:19:00,
2013-03-20 06:20:00,24.1,19.1,29.66,NNW,338,0.0,0.0,81,0.00,CLR,,0.00,WeatherDisplay:10.37,2013-03-20 10:20:00,
2013-03-20 06:22:00,24.3,19.3,29.66,WNW,292,0.0,0.0,81,0.00,CLR,,0.00,WeatherDisplay:10.37,2013-03-20 10:22:00,
2013-03-20 06:24:00,24.3,19.3,29.66,NW,315,0.0,0.0,81,0.00,CLR,,0.00,WeatherDisplay:10.37,2013-03-20 10:24:00,
2013-03-20 06:25:00,24.4,19.4,29.66,NW,315,0.0,0.0,81,0.00,CLR,,0.00,WeatherDisplay:10.37,2013-03-20 10:25:00,
2013-03-20 06:27:00,24.4,19.4,29.66,SSE,158,0.0,0.0,81,0.00,CLR,,0.00,WeatherDisplay:10.37,2013-03-20 10:27:00,
2013-03-20 06:29:00,24.4,19.4,29.66,North,0,0.0,0.0,81,0.00,CLR,,0.00,WeatherDisplay:10.37,2013-03-20 10:29:00,
2013-03-20 06:30:00,24.4,19.4,29.66,WNW,292,0.0,0.0,81,0.00,CLR,,0.00,WeatherDisplay:10.37,2013-03-20 10:30:00,
2013-03-20 06:32:00,24.4,19.4,29.66,WNW,292,0.0,0.0,81,0.00,CLR,,0.00,WeatherDisplay:10.37,2013-03-20 10:32:00,
2013-03-20 06:34:00,24.4,19.4,29.66,East,90,0.0,0.0,81,0.00,CLR,,0.00,WeatherDisplay:10.37,2013-03-20 10:34:00,
2013-03-20 06:35:00,24.4,19.4,29.66,NNW,338,0.0,0.0,81,0.00,CLR,,0.00,WeatherDisplay:10.37,2013-03-20 10:35:00,
2013-03-20 06:37:00,24.4,19.4,29.66,NNE,22,0.0,0.0,81,0.00,CLR,,0.00,WeatherDisplay:10.37,2013-03-20 10:37:00,
2013-03-20 06:38:00,24.4,19.4,29.66,NNE,22,0.0,0.0,81,0.00,CLR,,0.00,WeatherDisplay:10.37,2013-03-20 10:38:00,
2013-03-20 06:39:00,24.4,19.4,29.66,SSW,202,0.0,0.0,81,0.00,CLR,,0.00,WeatherDisplay:10.37,2013-03-20 10:39:00,
2013-03-20 06:40:00,24.4,19.4,29.66,North,0,0.0,0.0,81,0.00,CLR,,0.00,WeatherDisplay:10.37,2013-03-20 10:40:00,
2013-03-20 06:43:00,24.4,19.4,29.66,NW,315,0.0,0.0,81,0.00,CLR,,0.00,WeatherDisplay:10.37,2013-03-20 10:43:00,
2013-03-20 06:45:00,24.4,19.4,29.66,WNW,292,0.0,0.0,81,0.00,CLR,,0.00,WeatherDisplay:10.37,2013-03-20 10:45:00,
2013-03-20 06:48:00,24.4,19.4,29.66,WNW,292,0.0,0.0,81,0.00,CLR,,0.00,WeatherDisplay:10.37,2013-03-20 10:48:00,
2013-03-20 06:50:00,24.6,19.6,29.66,NNE,22,0.0,0.0,81,0.00,CLR,,0.00,WeatherDisplay:10.37,2013-03-20 10:50:00,
2013-03-20 06:53:00,24.6,19.6,29.66,WNW,292,0.0,0.0,81,0.00,CLR,,0.00,WeatherDisplay:10.37,2013-03-20 10:53:00,
2013-03-20 06:55:00,24.6,19.6,29.66,West,270,0.0,0.0,81,0.00,CLR,,0.00,WeatherDisplay:10.37,2013-03-20 10:55:00,
2013-03-20 06:58:00,24.6,19.6,29.66,WNW,292,0.0,0.0,81,0.00,CLR,,0.00,WeatherDisplay:10.37,2013-03-20 10:58:00,
2013-03-20 07:00:00,24.8,19.5,29.66,East,90,0.0,0.0,80,0.00,CLR,,0.00,WeatherDisplay:10.37,2013-03-20 11:00:00,
2013-03-20 07:03:00,24.8,19.5,29.66,NE,45,0.0,0.0,80,0.00,CLR,,0.00,WeatherDisplay:10.37,2013-03-20 11:03:00,
2013-03-20 07:05:00,24.8,19.5,29.66,North,0,0.0,0.0,80,0.00,CLR,,0.00,WeatherDisplay:10.37,2013-03-20 11:05:00,
2013-03-20 07:08:00,24.8,19.5,29.66,WSW,248,0.0,0.0,80,0.00,CLR,,0.00,WeatherDisplay:10.37,2013-03-20 11:08:00,
2013-03-20 07:09:00,24.8,19.5,29.66,NW,315,0.0,0.0,80,0.00,CLR,,0.00,WeatherDisplay:10.37,2013-03-20 11:09:00,
2013-03-20 07:10:00,25.0,19.4,29.66,WNW,292,0.0,0.0,79,0.00,CLR,,0.00,WeatherDisplay:10.37,2013-03-20 11:10:00,
2013-03-20 07:12:00,25.0,19.4,29.66,NE,45,0.0,0.0,79,0.00,CLR,,0.00,WeatherDisplay:10.37,2013-03-20 11:12:00,
2013-03-20 07:14:00,25.0,19.4,29.66,North,0,0.0,0.0,79,0.00,CLR,,0.00,WeatherDisplay:10.37,2013-03-20 11:14:00,
2013-03-20 07:15:00,25.0,19.4,29.66,West,270,0.0,0.0,79,0.00,CLR,,0.00,WeatherDisplay:10.37,2013-03-20 11:15:00,
2013-03-20 07:17:00,25.0,19.1,29.66,WNW,292,0.0,0.0,78,0.00,CLR,,0.00,WeatherDisplay:10.37,2013-03-20 11:17:00,
2013-03-20 07:19:00,25.0,19.1,29.66,WNW,292,0.0,0.0,78,0.00,CLR,,0.00,WeatherDisplay:10.37,2013-03-20 11:19:00,
2013-03-20 07:21:00,25.0,19.1,29.66,WNW,292,0.0,0.0,78,0.00,CLR,,0.00,WeatherDisplay:10.37,2013-03-20 11:21:00,
2013-03-20 07:22:00,25.2,19.3,29.66,West,270,0.0,0.0,78,0.00,CLR,,0.00,WeatherDisplay:10.37,2013-03-20 11:22:00,
2013-03-20 07:24:00,25.2,19.3,29.66,ENE,68,0.0,0.0,78,0.00,CLR,,0.00,WeatherDisplay:10.37,2013-03-20 11:24:00,
2013-03-20 07:26:00,25.0,19.1,29.66,NNW,338,0.0,0.0,78,0.00,CLR,,0.00,WeatherDisplay:10.37,2013-03-20 11:26:00,
2013-03-20 07:27:00,25.2,19.3,29.66,NNW,338,0.0,0.0,78,0.00,CLR,,0.00,WeatherDisplay:10.37,2013-03-20 11:27:00,
2013-03-20 07:30:00,25.2,19.3,29.66,WNW,292,0.0,0.0,78,0.00,CLR,,0.00,WeatherDisplay:10.37,2013-03-20 11:30:00,
2013-03-20 07:31:00,25.2,19.3,29.66,NNW,338,0.0,0.0,78,0.00,CLR,,0.00,WeatherDisplay:10.37,2013-03-20 11:31:00,
2013-03-20 07:32:00,25.2,19.3,29.66,ENE,68,0.0,0.0,78,0.00,CLR,,0.00,WeatherDisplay:10.37,2013-03-20 11:32:00,
2013-03-20 07:36:00,25.2,19.0,29.66,NNW,338,0.0,0.0,77,0.00,CLR,,0.00,WeatherDisplay:10.37,2013-03-20 11:36:00,
2013-03-20 07:37:00,25.2,19.0,29.66,NNW,338,0.0,0.0,77,0.00,CLR,,0.00,WeatherDisplay:10.37,2013-03-20 11:37:00,
2013-03-20 07:38:00,25.2,19.0,29.66,North,0,0.0,0.0,77,0.00,CLR,,0.00,WeatherDisplay:10.37,2013-03-20 11:38:00,
2013-03-20 07:41:00,25.2,19.0,29.66,North,0,0.0,0.0,77,0.00,CLR,,0.00,WeatherDisplay:10.37,2013-03-20 11:41:00,
2013-03-20 07:42:00,25.2,19.0,29.66,North,0,0.0,0.0,77,0.00,CLR,,0.00,WeatherDisplay:10.37,2013-03-20 11:42:00,
2013-03-20 07:43:00,25.2,19.0,29.66,ENE,68,0.0,0.0,77,0.00,CLR,,0.00,WeatherDisplay:10.37,2013-03-20 11:43:00,
2013-03-20 07:46:00,25.2,18.7,29.66,ESE,112,0.0,0.0,76,0.00,CLR,,0.00,WeatherDisplay:10.37,2013-03-20 11:46:00,
2013-03-20 07:47:00,25.2,18.7,29.66,NNE,22,0.0,0.0,76,0.00,CLR,,0.00,WeatherDisplay:10.37,2013-03-20 11:47:00,
2013-03-20 07:48:00,25.2,18.7,29.66,NNE,22,0.0,0.0,76,0.00,CLR,,0.00,WeatherDisplay:10.37,2013-03-20 11:48:00,
2013-03-20 07:52:00,25.2,18.7,29.66,NNW,338,0.0,0.0,76,0.00,CLR,,0.00,WeatherDisplay:10.37,2013-03-20 11:52:00,
2013-03-20 07:53:00,25.2,18.7,29.66,ENE,68,0.0,0.0,76,0.00,CLR,,0.00,WeatherDisplay:10.37,2013-03-20 11:53:00,
2013-03-20 07:57:00,25.3,18.5,29.66,WSW,248,0.0,0.0,75,0.00,CLR,,0.00,WeatherDisplay:10.37,2013-03-20 11:57:00,
2013-03-20 07:58:00,25.3,18.5,29.66,NNE,22,0.0,0.0,75,0.00,CLR,,0.00,WeatherDisplay:10.37,2013-03-20 11:58:00,
2013-03-20 08:02:00,25.3,18.2,29.69,ENE,68,0.0,0.0,74,0.00,CLR,,0.00,WeatherDisplay:10.37,2013-03-20 12:02:00,
2013-03-20 08:03:00,25.3,18.2,29.69,North,0,0.0,0.0,74,0.00,CLR,,0.00,WeatherDisplay:10.37,2013-03-20 12:03:00,
2013-03-20 08:07:00,25.5,18.4,29.69,NE,45,0.0,0.0,74,0.00,CLR,,0.00,WeatherDisplay:10.37,2013-03-20 12:07:00,
2013-03-20 08:08:00,25.5,18.4,29.69,NNW,338,0.0,0.0,74,0.00,CLR,,0.00,WeatherDisplay:10.37,2013-03-20 12:08:00,
2013-03-20 08:13:00,25.9,18.7,29.69,NNW,338,0.0,0.0,74,0.00,CLR,,0.00,WeatherDisplay:10.37,2013-03-20 12:13:00,
2013-03-20 08:18:00,26.1,18.6,29.66,NNE,22,0.0,0.0,73,0.00,CLR,,0.00,WeatherDisplay:10.37,2013-03-20 12:18:00,
2013-03-20 08:23:00,26.4,18.6,29.66,NNE,22,0.0,0.0,72,0.00,CLR,,0.00,WeatherDisplay:10.37,2013-03-20 12:23:00,
2013-03-20 08:24:00,26.4,18.6,29.66,WNW,292,0.0,0.0,72,0.00,CLR,,0.00,WeatherDisplay:10.37,2013-03-20 12:24:00,
2013-03-20 08:28:00,26.6,18.5,29.66,ENE,68,0.0,0.0,71,0.00,CLR,,0.00,WeatherDisplay:10.37,2013-03-20 12:28:00,
2013-03-20 08:30:00,26.6,18.5,29.66,North,0,0.0,0.0,71,0.00,CLR,,0.00,WeatherDisplay:10.37,2013-03-20 12:30:00,
2013-03-20 08:33:00,26.8,17.6,29.66,ESE,112,0.0,0.0,68,0.00,CLR,,0.00,WeatherDisplay:10.37,2013-03-20 12:33:00,
2013-03-20 08:34:00,26.8,17.6,29.66,NNE,22,0.0,0.0,68,0.00,CLR,,0.00,WeatherDisplay:10.37,2013-03-20 12:34:00,
2013-03-20 08:35:00,26.8,17.6,29.66,NE,45,0.0,0.0,68,0.00,CLR,,0.00,WeatherDisplay:10.37,2013-03-20 12:35:00,
2013-03-20 08:38:00,27.1,17.6,29.66,ESE,112,0.0,0.0,67,0.00,CLR,,0.00,WeatherDisplay:10.37,2013-03-20 12:38:00,
2013-03-20 08:39:00,27.1,17.6,29.66,NNW,338,0.0,0.0,67,0.00,CLR,,0.00,WeatherDisplay:10.37,2013-03-20 12:39:00,
2013-03-20 08:40:00,27.5,18.0,29.66,SSE,158,0.0,0.0,67,0.00,CLR,,0.00,WeatherDisplay:10.37,2013-03-20 12:40:00,
2013-03-20 08:43:00,27.9,18.0,29.66,NE,45,0.0,0.0,66,0.00,CLR,,0.00,WeatherDisplay:10.37,2013-03-20 12:43:00,
2013-03-20 08:44:00,27.9,18.0,29.66,ENE,68,0.0,0.0,66,0.00,CLR,,0.00,WeatherDisplay:10.37,2013-03-20 12:44:00,
2013-03-20 08:45:00,28.0,18.1,29.66,West,270,0.0,0.0,66,0.00,CLR,,0.00,WeatherDisplay:10.37,2013-03-20 12:45:00,
2013-03-20 08:48:00,28.2,17.6,29.66,NNW,338,0.0,0.0,64,0.00,CLR,,0.00,WeatherDisplay:10.37,2013-03-20 12:48:00,
2013-03-20 08:49:00,28.2,17.6,29.66,NNE,22,0.0,0.0,64,0.00,CLR,,0.00,WeatherDisplay:10.37,2013-03-20 12:49:00,
2013-03-20 08:50:00,28.4,17.8,29.66,East,90,0.0,0.0,64,0.00,CLR,,0.00,WeatherDisplay:10.37,2013-03-20 12:50:00,
2013-03-20 08:53:00,28.8,17.7,29.66,ENE,68,0.0,0.0,63,0.00,CLR,,0.00,WeatherDisplay:10.37,2013-03-20 12:53:00,
2013-03-20 08:54:00,28.6,17.6,29.66,WSW,248,0.0,0.0,63,0.00,CLR,,0.00,WeatherDisplay:10.37,2013-03-20 12:54:00,
2013-03-20 08:55:00,28.6,17.2,29.66,NW,315,0.0,0.0,62,0.00,CLR,,0.00,WeatherDisplay:10.37,2013-03-20 12:55:00,
2013-03-20 08:58:00,28.6,17.2,29.66,NNE,22,0.0,0.0,62,0.00,CLR,,0.00,WeatherDisplay:10.37,2013-03-20 12:58:00,
2013-03-20 08:59:00,28.6,16.8,29.66,NNW,338,0.0,0.0,61,0.00,CLR,,0.00,WeatherDisplay:10.37,2013-03-20 12:59:00,
2013-03-20 09:00:00,28.6,16.8,29.66,NE,45,0.0,0.0,61,0.00,CLR,,0.00,WeatherDisplay:10.37,2013-03-20 13:00:00,
2013-03-20 09:04:00,28.2,16.5,29.66,West,270,0.0,0.0,61,0.00,CLR,,0.00,WeatherDisplay:10.37,2013-03-20 13:04:00,
2013-03-20 09:05:00,28.2,16.5,29.66,SW,225,0.0,0.0,61,0.00,CLR,,0.00,WeatherDisplay:10.37,2013-03-20 13:05:00,
2013-03-20 09:09:00,28.0,15.9,29.66,West,270,0.0,0.0,60,0.00,CLR,,0.00,WeatherDisplay:10.37,2013-03-20 13:09:00,
2013-03-20 09:10:00,28.2,16.1,29.66,WSW,248,0.0,0.0,60,0.00,CLR,,0.00,WeatherDisplay:10.37,2013-03-20 13:10:00,
2013-03-20 09:14:00,28.0,15.5,29.66,WNW,292,0.0,0.0,59,0.00,CLR,,0.00,WeatherDisplay:10.37,2013-03-20 13:14:00,
2013-03-20 09:15:00,28.0,15.5,29.66,ESE,112,0.0,0.0,59,0.00,CLR,,0.00,WeatherDisplay:10.37,2013-03-20 13:15:00,
2013-03-20 09:19:00,28.2,16.1,29.66,WSW,248,0.0,0.0,60,0.00,CLR,,0.00,WeatherDisplay:10.37,2013-03-20 13:19:00,
2013-03-20 09:20:00,28.2,16.1,29.66,SSW,202,0.0,0.0,60,0.00,CLR,,0.00,WeatherDisplay:10.37,2013-03-20 13:20:00,
2013-03-20 09:24:00,29.5,16.9,29.66,NE,45,0.0,0.0,59,0.00,CLR,,0.00,WeatherDisplay:10.37,2013-03-20 13:24:00,
2013-03-20 09:25:00,29.5,16.9,29.66,WNW,292,0.0,0.0,59,0.00,CLR,,0.00,WeatherDisplay:10.37,2013-03-20 13:25:00,
2013-03-20 09:29:00,30.2,16.8,29.66,North,0,0.0,0.0,57,0.00,CLR,,0.00,WeatherDisplay:10.37,2013-03-20 13:29:00,
2013-03-20 09:30:00,30.2,16.8,29.66,ENE,68,0.0,0.0,57,0.00,CLR,,0.00,WeatherDisplay:10.37,2013-03-20 13:30:00,
2013-03-20 09:34:00,29.7,15.5,29.66,NNW,338,0.0,0.0,55,0.00,CLR,,0.00,WeatherDisplay:10.37,2013-03-20 13:34:00,
2013-03-20 09:35:00,29.5,15.3,29.66,SSE,158,0.0,0.0,55,0.00,CLR,,0.00,WeatherDisplay:10.37,2013-03-20 13:35:00,
2013-03-20 09:39:00,29.5,15.3,29.66,East,90,0.0,0.0,55,0.00,CLR,,0.00,WeatherDisplay:10.37,2013-03-20 13:39:00,
2013-03-20 09:40:00,29.7,15.5,29.66,North,0,0.0,0.0,55,0.00,CLR,,0.00,WeatherDisplay:10.37,2013-03-20 13:40:00,
2013-03-20 09:44:00,30.2,16.0,29.66,WNW,292,0.0,0.0,55,0.00,CLR,,0.00,WeatherDisplay:10.37,2013-03-20 13:44:00,
2013-03-20 09:45:00,30.2,16.0,29.66,West,270,0.0,0.0,55,0.00,CLR,,0.00,WeatherDisplay:10.37,2013-03-20 13:45:00,
2013-03-20 09:46:00,30.2,16.0,29.66,West,270,0.0,0.0,55,0.00,CLR,,0.00,WeatherDisplay:10.37,2013-03-20 13:46:00,
2013-03-20 09:50:00,30.6,15.4,29.66,WNW,292,0.0,0.0,53,0.00,CLR,,0.00,WeatherDisplay:10.37,2013-03-20 13:50:00,
2013-03-20 09:51:00,30.6,15.4,29.66,NNW,338,0.0,0.0,53,0.00,CLR,,0.00,WeatherDisplay:10.37,2013-03-20 13:51:00,
2013-03-20 09:55:00,31.1,15.9,29.66,WNW,292,0.0,0.0,53,0.00,CLR,,0.00,WeatherDisplay:10.37,2013-03-20 13:55:00,
2013-03-20 09:56:00,31.1,15.9,29.66,ENE,68,0.0,0.0,53,0.00,CLR,,0.00,WeatherDisplay:10.37,2013-03-20 13:56:00,
2013-03-20 09:57:00,31.1,15.1,29.66,NNW,338,2.3,2.3,51,0.00,CLR,,0.00,WeatherDisplay:10.37,2013-03-20 13:57:00,
2013-03-20 10:00:00,31.5,15.8,29.69,WNW,292,0.0,0.0,52,0.00,CLR,,0.00,WeatherDisplay:10.37,2013-03-20 14:00:00,
2013-03-20 10:01:00,31.6,16.0,29.69,East,90,0.0,0.0,52,0.00,CLR,,0.00,WeatherDisplay:10.37,2013-03-20 14:01:00,
2013-03-20 10:02:00,32.0,16.3,29.69,West,270,1.1,0.0,52,0.00,CLR,,0.00,WeatherDisplay:10.37,2013-03-20 14:02:00,
2013-03-20 10:05:00,32.2,16.1,29.69,North,0,1.1,0.0,51,0.00,CLR,,0.00,WeatherDisplay:10.37,2013-03-20 14:05:00,
2013-03-20 10:06:00,32.2,16.1,29.69,South,180,1.1,0.0,51,0.00,CLR,,0.00,WeatherDisplay:10.37,2013-03-20 14:06:00,
2013-03-20 10:07:00,32.2,15.1,29.69,East,90,1.1,0.0,49,0.00,CLR,,0.00,WeatherDisplay:10.37,2013-03-20 14:07:00,
2013-03-20 10:10:00,32.2,14.7,29.69,NNW,338,1.1,0.0,48,0.00,CLR,,0.00,WeatherDisplay:10.37,2013-03-20 14:10:00,
2013-03-20 10:11:00,32.2,14.7,29.69,NNE,22,0.0,0.0,48,0.00,CLR,,0.00,WeatherDisplay:10.37,2013-03-20 14:11:00,
2013-03-20 10:12:00,32.4,14.8,29.69,West,270,0.0,0.0,48,0.00,CLR,,0.00,WeatherDisplay:10.37,2013-03-20 14:12:00,
2013-03-20 10:15:00,32.2,13.7,29.66,WNW,292,4.6,4.6,46,0.00,CLR,,0.00,WeatherDisplay:10.37,2013-03-20 14:15:00,
2013-03-20 10:16:00,32.2,13.7,29.66,ENE,68,4.6,4.6,46,0.00,CLR,,0.00,WeatherDisplay:10.37,2013-03-20 14:16:00,
2013-03-20 10:17:00,32.2,13.7,29.66,NNE,22,2.3,2.3,46,0.00,CLR,,0.00,WeatherDisplay:10.37,2013-03-20 14:17:00,
2013-03-20 10:20:00,32.5,14.0,29.66,NE,45,0.0,0.0,46,0.00,CLR,,0.00,WeatherDisplay:10.37,2013-03-20 14:20:00,
2013-03-20 10:22:00,32.7,14.2,29.66,NNW,338,6.9,6.9,46,0.00,CLR,,0.00,WeatherDisplay:10.37,2013-03-20 14:22:00,
2013-03-20 10:23:00,32.5,13.0,29.66,North,0,6.9,6.9,44,0.00,CLR,,0.00,WeatherDisplay:10.37,2013-03-20 14:23:00,
2013-03-20 10:25:00,32.5,13.0,29.66,NNE,22,5.8,5.8,44,0.00,CLR,,0.00,WeatherDisplay:10.37,2013-03-20 14:25:00,
2013-03-20 10:27:00,32.5,13.0,29.66,SSE,158,6.9,6.9,44,0.00,CLR,,0.00,WeatherDisplay:10.37,2013-03-20 14:27:00,
2013-03-20 10:28:00,32.7,13.2,29.66,West,270,6.9,6.9,44,0.00,CLR,,0.00,WeatherDisplay:10.37,2013-03-20 14:28:00,
2013-03-20 10:31:00,33.1,13.0,29.66,NNW,338,10.4,10.4,43,0.00,CLR,,0.00,WeatherDisplay:10.37,2013-03-20 14:31:00,
2013-03-20 10:32:00,33.1,13.0,29.66,NW,315,11.5,11.5,43,0.00,CLR,,0.00,WeatherDisplay:10.37,2013-03-20 14:32:00,
2013-03-20 10:33:00,33.3,13.1,29.66,SE,135,11.5,11.5,43,0.00,CLR,,0.00,WeatherDisplay:10.37,2013-03-20 14:33:00,
2013-03-20 10:36:00,33.4,13.3,29.66,SSW,202,5.8,5.8,43,0.00,CLR,,0.00,WeatherDisplay:10.37,2013-03-20 14:36:00,
2013-03-20 10:37:00,33.6,13.5,29.66,North,0,9.7,9.7,43,0.00,CLR,,0.00,WeatherDisplay:10.37,2013-03-20 14:37:00,
2013-03-20 10:38:00,33.6,13.5,29.66,SE,135,9.2,9.2,43,0.00,CLR,,0.00,WeatherDisplay:10.37,2013-03-20 14:38:00,
2013-03-20 10:42:00,33.4,13.8,29.66,NNW,338,4.6,4.9,44,0.00,CLR,,0.00,WeatherDisplay:10.37,2013-03-20 14:42:00,
2013-03-20 10:43:00,33.6,14.0,29.66,ENE,68,5.8,5.8,44,0.00,CLR,,0.00,WeatherDisplay:10.37,2013-03-20 14:43:00,
2013-03-20 10:47:00,33.4,12.8,29.66,NNW,338,9.2,9.2,42,0.00,CLR,,0.00,WeatherDisplay:10.37,2013-03-20 14:47:00,
2013-03-20 10:48:00,33.3,12.6,29.66,ENE,68,9.2,9.2,42,0.00,CLR,,0.00,WeatherDisplay:10.37,2013-03-20 14:48:00,
2013-03-20 10:52:00,33.4,12.8,29.66,NNW,338,5.8,5.8,42,0.00,CLR,,0.00,WeatherDisplay:10.37,2013-03-20 14:52:00,
2013-03-20 10:53:00,33.3,12.1,29.66,SW,225,5.8,5.8,41,0.00,CLR,,0.00,WeatherDisplay:10.37,2013-03-20 14:53:00,
2013-03-20 10:57:00,33.3,12.1,29.66,East,90,10.4,10.4,41,0.00,CLR,,0.00,WeatherDisplay:10.37,2013-03-20 14:57:00,
2013-03-20 10:58:00,33.4,12.2,29.66,NNE,22,10.4,10.4,41,0.00,CLR,,0.00,WeatherDisplay:10.37,2013-03-20 14:58:00,
2013-03-20 11:03:00,34.3,13.6,29.66,ESE,112,4.7,4.7,42,0.00,CLR,,0.00,WeatherDisplay:10.37,2013-03-20 15:03:00,
2013-03-20 11:08:00,34.9,13.0,29.66,NNW,338,11.5,11.5,40,0.00,CLR,,0.00,WeatherDisplay:10.37,2013-03-20 15:08:00,
2013-03-20 11:13:00,35.2,13.3,29.66,NNE,22,11.5,11.5,40,0.00,CLR,,0.00,WeatherDisplay:10.37,2013-03-20 15:13:00,
2013-03-20 11:18:00,34.3,11.9,29.66,ENE,68,10.4,10.4,39,0.00,CLR,,0.00,WeatherDisplay:10.37,2013-03-20 15:18:00,
2013-03-20 11:19:00,34.3,12.5,29.66,WNW,292,3.5,3.5,40,0.00,CLR,,0.00,WeatherDisplay:10.37,2013-03-20 15:19:00,
2013-03-20 11:23:00,34.7,12.8,29.66,North,0,6.9,6.9,40,0.00,CLR,,0.00,WeatherDisplay:10.37,2013-03-20 15:23:00,
2013-03-20 11:24:00,34.7,12.8,29.66,ENE,68,6.9,6.9,40,0.00,CLR,,0.00,WeatherDisplay:10.37,2013-03-20 15:24:00,
2013-03-20 11:28:00,34.2,11.2,29.66,WNW,292,5.8,5.8,38,0.00,CLR,,0.00,WeatherDisplay:10.37,2013-03-20 15:28:00,
2013-03-20 11:29:00,34.2,11.2,29.66,WNW,292,5.8,5.8,38,0.00,CLR,,0.00,WeatherDisplay:10.37,2013-03-20 15:29:00,
2013-03-20 11:34:00,34.3,12.5,29.66,North,0,4.6,4.6,40,0.00,CLR,,0.00,WeatherDisplay:10.37,2013-03-20 15:34:00,
2013-03-20 11:39:00,34.3,11.9,29.66,NNE,22,5.8,5.8,39,0.00,CLR,,0.00,WeatherDisplay:10.37,2013-03-20 15:39:00,
2013-03-20 11:40:00,34.9,13.0,29.66,North,0,4.6,4.6,40,0.00,CLR,,0.00,WeatherDisplay:10.37,2013-03-20 15:40:00,
2013-03-20 11:44:00,36.1,12.9,29.66,North,0,8.1,8.1,38,0.00,CLR,,0.00,WeatherDisplay:10.37,2013-03-20 15:44:00,
2013-03-20 11:45:00,36.1,12.3,29.66,NNE,22,11.5,11.5,37,0.00,CLR,,0.00,WeatherDisplay:10.37,2013-03-20 15:45:00,
2013-03-20 11:49:00,36.7,10.9,29.66,NW,315,12.7,12.7,34,0.00,CLR,,0.00,WeatherDisplay:10.37,2013-03-20 15:49:00,
2013-03-20 11:50:00,36.7,10.9,29.66,NE,45,10.4,10.4,34,0.00,CLR,,0.00,WeatherDisplay:10.37,2013-03-20 15:50:00,
2013-03-20 11:54:00,37.0,11.9,29.66,ENE,68,8.1,8.1,35,0.00,CLR,,0.00,WeatherDisplay:10.37,2013-03-20 15:54:00,
2013-03-20 11:55:00,37.2,11.4,29.66,ENE,68,6.9,6.9,34,0.00,CLR,,0.00,WeatherDisplay:10.37,2013-03-20 15:55:00,
2013-03-20 11:59:00,36.7,10.2,29.66,NE,45,4.6,4.6,33,0.00,CLR,,0.00,WeatherDisplay:10.37,2013-03-20 15:59:00,
2013-03-20 12:00:00,36.3,9.2,29.66,NE,45,10.4,10.4,32,0.00,CLR,,0.00,WeatherDisplay:10.37,2013-03-20 16:00:00,
2013-03-20 12:04:00,36.3,9.2,29.66,West,270,10.4,10.4,32,0.00,CLR,,0.00,WeatherDisplay:10.37,2013-03-20 16:04:00,
2013-03-20 12:05:00,36.7,9.5,29.66,East,90,10.4,10.4,32,0.00,CLR,,0.00,WeatherDisplay:10.37,2013-03-20 16:05:00,
2013-03-20 12:09:00,37.6,9.6,29.66,ENE,68,10.0,10.0,31,0.00,CLR,,0.00,WeatherDisplay:10.37,2013-03-20 16:09:00,
2013-03-20 12:10:00,37.6,9.6,29.66,ESE,112,11.5,11.5,31,0.00,CLR,,0.00,WeatherDisplay:10.37,2013-03-20 16:10:00,
2013-03-20 12:14:00,38.3,10.3,29.66,NNE,22,10.4,10.4,31,0.00,CLR,,0.00,WeatherDisplay:10.37,2013-03-20 16:14:00,
2013-03-20 12:16:00,38.3,10.3,29.66,NW,315,8.1,8.1,31,0.00,CLR,,0.00,WeatherDisplay:10.37,2013-03-20 16:16:00,
2013-03-20 12:19:00,39.2,11.0,29.66,NW,315,10.7,10.7,31,0.00,CLR,,0.00,WeatherDisplay:10.37,2013-03-20 16:19:00,
2013-03-20 12:21:00,38.5,10.4,29.66,WNW,292,9.2,9.2,31,0.00,CLR,,0.00,WeatherDisplay:10.37,2013-03-20 16:21:00,
2013-03-20 12:24:00,39.0,10.9,29.66,WNW,292,5.8,5.8,31,0.00,CLR,,0.00,WeatherDisplay:10.37,2013-03-20 16:24:00,
2013-03-20 12:27:00,38.3,10.3,29.66,NNE,22,11.5,11.5,31,0.00,CLR,,0.00,WeatherDisplay:10.37,2013-03-20 16:27:00,
2013-03-20 12:29:00,36.7,8.8,29.66,North,0,9.2,9.2,31,0.00,CLR,,0.00,WeatherDisplay:10.37,2013-03-20 16:29:00,
2013-03-20 12:30:00,36.7,8.8,29.66,NW,315,5.8,5.8,31,0.00,CLR,,0.00,WeatherDisplay:10.37,2013-03-20 16:30:00,
2013-03-20 12:32:00,36.0,8.2,29.66,NNW,338,9.2,9.2,31,0.00,CLR,,0.00,WeatherDisplay:10.37,2013-03-20 16:32:00,
2013-03-20 12:34:00,36.3,8.5,29.66,NNE,22,11.5,11.5,31,0.00,CLR,,0.00,WeatherDisplay:10.37,2013-03-20 16:34:00,
2013-03-20 12:35:00,36.3,8.5,29.66,NNE,22,6.9,6.9,31,0.00,CLR,,0.00,WeatherDisplay:10.37,2013-03-20 16:35:00,
2013-03-20 12:37:00,37.0,9.9,29.66,NW,315,11.5,11.5,32,0.00,CLR,,0.00,WeatherDisplay:10.37,2013-03-20 16:37:00,
2013-03-20 12:39:00,37.8,9.8,29.66,SSW,202,6.9,6.9,31,0.00,CLR,,0.00,WeatherDisplay:10.37,2013-03-20 16:39:00,
2013-03-20 12:40:00,37.8,9.8,29.66,WNW,292,5.8,5.8,31,0.00,CLR,,0.00,WeatherDisplay:10.37,2013-03-20 16:40:00,
2013-03-20 12:42:00,37.6,9.6,29.66,NW,315,13.8,13.8,31,0.00,CLR,,0.00,WeatherDisplay:10.37,2013-03-20 16:42:00,
2013-03-20 12:44:00,36.1,9.1,29.66,NE,45,11.5,11.5,32,0.00,CLR,,0.00,WeatherDisplay:10.37,2013-03-20 16:44:00,
2013-03-20 12:45:00,36.1,9.1,29.66,WNW,292,11.5,11.5,32,0.00,CLR,,0.00,WeatherDisplay:10.37,2013-03-20 16:45:00,
2013-03-20 12:48:00,35.2,9.6,29.66,ENE,68,8.1,8.1,34,0.00,CLR,,0.00,WeatherDisplay:10.37,2013-03-20 16:48:00,
2013-03-20 12:49:00,35.2,10.3,29.66,WSW,248,8.1,8.1,35,0.00,CLR,,0.00,WeatherDisplay:10.37,2013-03-20 16:49:00,
2013-03-20 12:50:00,35.2,10.3,29.66,NNE,22,5.8,5.8,35,0.00,CLR,,0.00,WeatherDisplay:10.37,2013-03-20 16:50:00,
2013-03-20 12:53:00,34.9,10.6,29.66,NNW,338,10.4,10.4,36,0.00,CLR,,0.00,WeatherDisplay:10.37,2013-03-20 16:53:00,
2013-03-20 12:55:00,35.1,11.4,29.66,SSW,202,3.6,3.6,37,0.00,CLR,,0.00,WeatherDisplay:10.37,2013-03-20 16:55:00,
2013-03-20 12:56:00,35.6,11.9,29.66,NNW,338,17.0,17.0,37,0.00,CLR,,0.00,WeatherDisplay:10.37,2013-03-20 16:56:00,
2013-03-20 12:58:00,36.3,11.9,29.66,NNW,338,10.4,10.4,36,0.00,CLR,,0.00,WeatherDisplay:10.37,2013-03-20 16:58:00,
2013-03-20 13:00:00,37.2,12.7,29.66,WNW,292,12.7,12.7,36,0.00,CLR,,0.00,WeatherDisplay:10.37,2013-03-20 17:00:00,
2013-03-20 13:01:00,37.6,13.0,29.66,NNW,338,9.2,9.2,36,0.00,CLR,,0.00,WeatherDisplay:10.37,2013-03-20 17:01:00,
2013-03-20 13:03:00,37.0,11.2,29.66,NW,315,10.2,10.2,34,0.00,CLR,,0.00,WeatherDisplay:10.37,2013-03-20 17:03:00,
2013-03-20 13:05:00,36.7,10.9,29.66,WNW,292,15.0,15.0,34,0.00,CLR,,0.00,WeatherDisplay:10.37,2013-03-20 17:05:00,
2013-03-20 13:06:00,37.0,11.2,29.66,North,0,15.0,15.0,34,0.00,CLR,,0.00,WeatherDisplay:10.37,2013-03-20 17:06:00,
2013-03-20 13:08:00,36.1,10.4,29.66,NW,315,10.4,10.4,34,0.00,CLR,,0.00,WeatherDisplay:10.37,2013-03-20 17:08:00,
2013-03-20 13:10:00,35.8,10.1,29.66,NW,315,5.8,6.0,34,0.00,CLR,,0.00,WeatherDisplay:10.37,2013-03-20 17:10:00,
2013-03-20 13:12:00,35.6,10.6,29.66,WNW,292,5.8,5.8,35,0.00,CLR,,0.00,WeatherDisplay:10.37,2013-03-20 17:12:00,
2013-03-20 13:14:00,35.1,11.4,29.66,NE,45,8.1,8.1,37,0.00,CLR,,0.00,WeatherDisplay:10.37,2013-03-20 17:14:00,
2013-03-20 13:15:00,35.1,12.0,29.66,NNW,338,6.0,6.0,38,0.00,CLR,,0.00,WeatherDisplay:10.37,2013-03-20 17:15:00,
2013-03-20 13:17:00,35.1,12.0,29.66,NNW,338,5.8,5.8,38,0.00,CLR,,0.00,WeatherDisplay:10.37,2013-03-20 17:17:00,
2013-03-20 13:19:00,35.1,10.1,29.66,WSW,248,6.9,6.9,35,0.00,CLR,,0.00,WeatherDisplay:10.37,2013-03-20 17:19:00,
2013-03-20 13:20:00,34.9,10.0,29.66,North,0,6.9,6.9,35,0.00,CLR,,0.00,WeatherDisplay:10.37,2013-03-20 17:20:00,
2013-03-20 13:21:00,34.9,10.0,29.66,North,0,6.9,6.9,35,0.00,CLR,,0.00,WeatherDisplay:10.37,2013-03-20 17:21:00,
2013-03-20 13:22:00,34.7,9.1,29.66,NNW,338,9.2,9.2,34,0.00,CLR,,0.00,WeatherDisplay:10.37,2013-03-20 17:22:00,
2013-03-20 13:24:00,34.9,10.6,29.66,SW,225,5.8,5.8,36,0.00,CLR,,0.00,WeatherDisplay:10.37,2013-03-20 17:24:00,
2013-03-20 13:26:00,34.7,9.8,29.66,NNE,22,7.6,7.6,35,0.00,CLR,,0.00,WeatherDisplay:10.37,2013-03-20 17:26:00,
2013-03-20 13:28:00,34.3,9.5,29.66,North,0,10.7,10.7,35,0.00,CLR,,0.00,WeatherDisplay:10.37,2013-03-20 17:28:00,
2013-03-20 13:29:00,34.5,9.6,29.66,NNE,22,10.4,10.4,35,0.00,CLR,,0.00,WeatherDisplay:10.37,2013-03-20 17:29:00,
2013-03-20 13:32:00,34.7,9.8,29.66,ENE,68,9.2,9.2,35,0.00,CLR,,0.00,WeatherDisplay:10.37,2013-03-20 17:32:00,
2013-03-20 13:33:00,35.1,10.7,29.66,NE,45,5.8,5.8,36,0.00,CLR,,0.00,WeatherDisplay:10.37,2013-03-20 17:33:00,
2013-03-20 13:34:00,35.6,12.5,29.66,NNE,22,5.8,5.8,38,0.00,CLR,,0.00,WeatherDisplay:10.37,2013-03-20 17:34:00,
2013-03-20 13:37:00,37.0,11.2,29.66,ENE,68,4.6,4.7,34,0.00,CLR,,0.00,WeatherDisplay:10.37,2013-03-20 17:37:00,
2013-03-20 13:38:00,37.0,11.2,29.66,NW,315,5.8,5.8,34,0.00,CLR,,0.00,WeatherDisplay:10.37,2013-03-20 17:38:00,
2013-03-20 13:39:00,38.3,13.0,29.66,NNW,338,2.4,2.4,35,0.00,CLR,,0.00,WeatherDisplay:10.37,2013-03-20 17:39:00,
2013-03-20 13:42:00,37.9,10.7,29.66,WSW,248,10.4,10.4,32,0.00,CLR,,0.00,WeatherDisplay:10.37,2013-03-20 17:42:00,
2013-03-20 13:43:00,37.4,10.2,29.66,NE,45,12.5,12.5,32,0.00,CLR,,0.00,WeatherDisplay:10.37,2013-03-20 17:43:00,
2013-03-20 13:45:00,38.1,10.8,29.66,NNE,22,8.1,8.1,32,0.00,CLR,,0.00,WeatherDisplay:10.37,2013-03-20 17:45:00,
2013-03-20 13:47:00,39.6,12.1,29.66,WSW,248,5.8,5.8,32,0.00,CLR,,0.00,WeatherDisplay:10.37,2013-03-20 17:47:00,
2013-03-20 13:48:00,39.6,12.1,29.66,WSW,248,5.8,5.8,32,0.00,CLR,,0.00,WeatherDisplay:10.37,2013-03-20 17:48:00,
2013-03-20 13:50:00,39.4,11.9,29.66,SSW,202,4.6,4.6,32,0.00,CLR,,0.00,WeatherDisplay:10.37,2013-03-20 17:50:00,
2013-03-20 13:52:00,38.8,10.7,29.66,NNE,22,9.2,9.2,31,0.00,CLR,,0.00,WeatherDisplay:10.37,2013-03-20 17:52:00,
2013-03-20 13:53:00,38.8,10.7,29.66,WSW,248,9.2,9.2,31,0.00,CLR,,0.00,WeatherDisplay:10.37,2013-03-20 17:53:00,
2013-03-20 13:55:00,38.7,10.6,29.66,NE,45,15.0,15.0,31,0.00,CLR,,0.00,WeatherDisplay:10.37,2013-03-20 17:55:00,
2013-03-20 13:58:00,37.4,8.0,29.66,NNE,22,12.8,12.8,29,0.00,CLR,,0.00,WeatherDisplay:10.37,2013-03-20 17:58:00,
2013-03-20 14:00:00,37.0,8.4,29.63,NW,315,9.2,9.2,30,0.00,CLR,,0.00,WeatherDisplay:10.37,2013-03-20 18:00:00,
2013-03-20 14:03:00,38.7,9.8,29.63,NW,315,8.5,8.5,30,0.00,CLR,,0.00,WeatherDisplay:10.37,2013-03-20 18:03:00,
2013-03-20 14:05:00,37.2,9.3,29.63,NNW,338,8.1,8.1,31,0.00,CLR,,0.00,WeatherDisplay:10.37,2013-03-20 18:05:00,
2013-03-20 14:08:00,37.0,9.2,29.63,NNW,338,10.5,10.5,31,0.00,CLR,,0.00,WeatherDisplay:10.37,2013-03-20 18:08:00,
2013-03-20 14:10:00,38.5,10.4,29.63,ENE,68,6.9,6.9,31,0.00,CLR,,0.00,WeatherDisplay:10.37,2013-03-20 18:10:00,
2013-03-20 14:13:00,38.8,10.7,29.63,West,270,6.9,6.9,31,0.00,CLR,,0.00,WeatherDisplay:10.37,2013-03-20 18:13:00,
2013-03-20 14:15:00,38.3,10.3,29.66,NW,315,13.8,13.8,31,0.00,CLR,,0.00,WeatherDisplay:10.37,2013-03-20 18:15:00,
2013-03-20 14:18:00,38.7,9.8,29.66,NW,315,6.2,6.2,30,0.00,CLR,,0.00,WeatherDisplay:10.37,2013-03-20 18:18:00,
2013-03-20 14:21:00,40.3,11.3,29.66,NNW,338,4.6,4.6,30,0.00,CLR,,0.00,WeatherDisplay:10.37,2013-03-20 18:21:00,
2013-03-20 14:23:00,41.0,11.9,29.66,West,270,3.5,3.6,30,0.00,CLR,,0.00,WeatherDisplay:10.37,2013-03-20 18:23:00,
2013-03-20 14:24:00,40.3,11.3,29.66,NE,45,9.2,9.2,30,0.00,CLR,,0.00,WeatherDisplay:10.37,2013-03-20 18:24:00,
2013-03-20 14:27:00,40.3,11.3,29.66,ENE,68,6.9,6.9,30,0.00,CLR,,0.00,WeatherDisplay:10.37,2013-03-20 18:27:00,
2013-03-20 14:28:00,40.3,10.5,29.66,NW,315,6.9,6.9,29,0.00,CLR,,0.00,WeatherDisplay:10.37,2013-03-20 18:28:00,
2013-03-20 14:29:00,39.9,10.2,29.63,NNE,22,4.6,4.6,29,0.00,CLR,,0.00,WeatherDisplay:10.37,2013-03-20 18:29:00,
2013-03-20 14:32:00,39.0,10.2,29.63,East,90,1.1,1.1,30,0.00,CLR,,0.00,WeatherDisplay:10.37,2013-03-20 18:32:00,
2013-03-20 14:33:00,39.0,10.2,29.63,NNE,22,0.9,0.9,30,0.00,CLR,,0.00,WeatherDisplay:10.37,2013-03-20 18:33:00,
2013-03-20 14:34:00,39.0,10.2,29.63,North,0,4.6,4.6,30,0.00,CLR,,0.00,WeatherDisplay:10.37,2013-03-20 18:34:00,
2013-03-20 14:37:00,37.2,10.0,29.63,North,0,6.9,6.9,32,0.00,CLR,,0.00,WeatherDisplay:10.37,2013-03-20 18:37:00,
2013-03-20 14:38:00,36.7,9.5,29.63,NNW,338,6.9,6.9,32,0.00,CLR,,0.00,WeatherDisplay:10.37,2013-03-20 18:38:00,
2013-03-20 14:39:00,36.3,9.9,29.63,ESE,112,4.6,4.6,33,0.00,CLR,,0.00,WeatherDisplay:10.37,2013-03-20 18:39:00,
2013-03-20 14:43:00,34.7,10.4,29.63,NE,45,9.2,9.2,36,0.00,CLR,,0.00,WeatherDisplay:10.37,2013-03-20 18:43:00,
2013-03-20 14:44:00,34.7,10.4,29.63,NNE,22,3.5,3.5,36,0.00,CLR,,0.00,WeatherDisplay:10.37,2013-03-20 18:44:00,
2013-03-20 14:45:00,34.3,11.3,29.63,North,0,8.1,8.1,38,0.00,CLR,,0.00,WeatherDisplay:10.37,2013-03-20 18:45:00,
2013-03-20 14:48:00,33.8,12.0,29.63,NNE,22,10.4,10.4,40,0.00,CLR,,0.00,WeatherDisplay:10.37,2013-03-20 18:48:00,
2013-03-20 14:49:00,33.8,12.0,29.63,East,90,9.2,9.2,40,0.00,CLR,,0.00,WeatherDisplay:10.37,2013-03-20 18:49:00,
2013-03-20 14:50:00,33.6,12.4,29.63,NNE,22,10.4,10.4,41,0.00,CLR,,0.00,WeatherDisplay:10.37,2013-03-20 18:50:00,
2013-03-20 14:53:00,33.6,12.4,29.63,NNE,22,9.2,9.2,41,0.00,CLR,,0.00,WeatherDisplay:10.37,2013-03-20 18:53:00,
2013-03-20 14:54:00,33.6,12.4,29.63,SSE,158,9.2,9.2,41,0.00,CLR,,0.00,WeatherDisplay:10.37,2013-03-20 18:54:00,
2013-03-20 14:55:00,33.8,12.6,29.63,ESE,112,2.6,2.6,41,0.00,CLR,,0.00,WeatherDisplay:10.37,2013-03-20 18:55:00,
2013-03-20 14:58:00,35.4,14.0,29.63,NNE,22,3.5,3.5,41,0.00,CLR,,0.00,WeatherDisplay:10.37,2013-03-20 18:58:00,
2013-03-20 14:59:00,35.4,14.0,29.63,NNE,22,1.1,1.6,41,0.00,CLR,,0.00,WeatherDisplay:10.37,2013-03-20 18:59:00,
2013-03-20 15:00:00,35.6,14.2,29.63,NNE,22,0.0,0.0,41,0.00,CLR,,0.00,WeatherDisplay:10.37,2013-03-20 19:00:00,
2013-03-20 15:03:00,36.1,14.1,29.63,WNW,292,4.6,4.6,40,0.00,CLR,,0.00,WeatherDisplay:10.37,2013-03-20 19:03:00,
2013-03-20 15:04:00,36.1,14.1,29.63,NNW,338,4.6,4.6,40,0.00,CLR,,0.00,WeatherDisplay:10.37,2013-03-20 19:04:00,
2013-03-20 15:05:00,36.9,13.6,29.63,ESE,112,4.6,4.6,38,0.00,CLR,,0.00,WeatherDisplay:10.37,2013-03-20 19:05:00,
2013-03-20 15:09:00,38.5,13.8,29.63,NNE,22,5.8,5.8,36,0.00,CLR,,0.00,WeatherDisplay:10.37,2013-03-20 19:09:00,
2013-03-20 15:10:00,38.5,13.8,29.63,NNW,338,5.8,5.8,36,0.00,CLR,,0.00,WeatherDisplay:10.37,2013-03-20 19:10:00,
2013-03-20 15:14:00,38.3,11.7,29.63,NNE,22,10.4,10.4,33,0.00,CLR,,0.00,WeatherDisplay:10.37,2013-03-20 19:14:00,
2013-03-20 15:15:00,39.0,12.3,29.63,WNW,292,9.2,0.0,33,0.00,CLR,,0.00,WeatherDisplay:10.37,2013-03-20 19:15:00,
2013-03-20 15:19:00,40.1,11.8,29.63,NNW,338,4.7,4.7,31,0.00,CLR,,0.00,WeatherDisplay:10.37,2013-03-20 19:19:00,
2013-03-20 15:20:00,40.5,11.4,29.63,NW,315,10.4,10.4,30,0.00,CLR,,0.00,WeatherDisplay:10.37,2013-03-20 19:20:00,
2013-03-20 15:24:00,38.7,9.1,29.63,WNW,292,5.8,5.8,29,0.00,CLR,,0.00,WeatherDisplay:10.37,2013-03-20 19:24:00,
2013-03-20 15:25:00,39.0,10.2,29.63,NNE,22,5.8,5.8,30,0.00,CLR,,0.00,WeatherDisplay:10.37,2013-03-20 19:25:00,
2013-03-20 15:29:00,39.2,13.1,29.63,NNE,22,10.7,10.7,34,0.00,CLR,,0.00,WeatherDisplay:10.37,2013-03-20 19:29:00,
2013-03-20 15:30:00,38.1,13.5,29.63,NE,45,10.4,10.4,36,0.00,CLR,,0.00,WeatherDisplay:10.37,2013-03-20 19:30:00,
2013-03-20 15:34:00,36.3,14.3,29.63,ENE,68,0.0,0.0,40,0.00,CLR,,0.00,WeatherDisplay:10.37,2013-03-20 19:34:00,
2013-03-20 15:35:00,36.0,14.5,29.63,ENE,68,8.1,8.1,41,0.00,CLR,,0.00,WeatherDisplay:10.37,2013-03-20 19:35:00,
2013-03-20 15:39:00,34.7,14.5,29.63,East,90,6.9,6.9,43,0.00,CLR,,0.00,WeatherDisplay:10.37,2013-03-20 19:39:00,
2013-03-20 15:40:00,35.4,15.6,29.63,NE,45,4.6,4.6,44,0.00,CLR,,0.00,WeatherDisplay:10.37,2013-03-20 19:40:00,
2013-03-20 15:44:00,36.9,17.0,29.63,NNE,22,3.5,3.5,44,0.00,CLR,,0.00,WeatherDisplay:10.37,2013-03-20 19:44:00,
2013-03-20 15:45:00,37.4,16.9,29.63,ESE,112,3.5,3.5,43,0.00,CLR,,0.00,WeatherDisplay:10.37,2013-03-20 19:45:00,
2013-03-20 15:49:00,38.7,17.5,29.63,ENE,68,2.3,2.3,42,0.00,CLR,,0.00,WeatherDisplay:10.37,2013-03-20 19:49:00,
2013-03-20 15:50:00,37.9,16.9,29.63,ENE,68,1.1,1.1,42,0.00,CLR,,0.00,WeatherDisplay:10.37,2013-03-20 19:50:00,
2013-03-20 15:54:00,36.3,15.4,29.63,NE,45,1.1,0.0,42,0.00,CLR,,0.00,WeatherDisplay:10.37,2013-03-20 19:54:00,
2013-03-20 15:55:00,36.0,15.1,29.63,NNE,22,2.3,0.0,42,0.00,CLR,,0.00,WeatherDisplay:10.37,2013-03-20 19:55:00,
2013-03-20 15:56:00,36.0,15.1,29.63,North,0,2.6,0.0,42,0.00,CLR,,0.00,WeatherDisplay:10.37,2013-03-20 19:56:00,
2013-03-20 15:59:00,34.5,13.8,29.63,NNE,22,1.1,1.4,42,0.00,CLR,,0.00,WeatherDisplay:10.37,2013-03-20 19:59:00,
2013-03-20 16:01:00,34.0,13.8,29.63,NNE,22,1.1,2.4,43,0.00,CLR,,0.00,WeatherDisplay:10.37,2013-03-20 20:01:00,
2013-03-20 16:02:00,33.8,14.2,29.63,NE,45,5.9,5.9,44,0.00,CLR,,0.00,WeatherDisplay:10.37,2013-03-20 20:02:00,
2013-03-20 16:04:00,33.4,14.3,29.63,NNW,338,0.0,0.0,45,0.00,CLR,,0.00,WeatherDisplay:10.37,2013-03-20 20:04:00,
2013-03-20 16:06:00,33.3,14.2,29.63,ENE,68,10.4,10.4,45,0.00,CLR,,0.00,WeatherDisplay:10.37,2013-03-20 20:06:00,
2013-03-20 16:07:00,33.3,14.2,29.63,North,0,0.0,0.0,45,0.00,CLR,,0.00,WeatherDisplay:10.37,2013-03-20 20:07:00,
2013-03-20 16:09:00,33.3,13.7,29.63,NNE,22,5.8,5.8,44,0.00,CLR,,0.00,WeatherDisplay:10.37,2013-03-20 20:09:00,
2013-03-20 16:11:00,32.9,13.3,29.63,NNW,338,8.1,8.1,44,0.00,CLR,,0.00,WeatherDisplay:10.37,2013-03-20 20:11:00,
2013-03-20 16:12:00,32.9,13.3,29.63,NNE,22,8.1,8.1,44,0.00,CLR,,0.00,WeatherDisplay:10.37,2013-03-20 20:12:00,
2013-03-20 16:13:00,32.7,13.7,29.63,ENE,68,5.8,5.8,45,0.00,CLR,,0.00,WeatherDisplay:10.37,2013-03-20 20:13:00,
2013-03-20 16:15:00,32.7,13.7,29.66,NE,45,2.3,2.3,45,0.00,CLR,,0.00,WeatherDisplay:10.37,2013-03-20 20:15:00,
2013-03-20 16:16:00,32.5,13.0,29.66,North,0,4.6,4.6,44,0.00,CLR,,0.00,WeatherDisplay:10.37,2013-03-20 20:16:00,
2013-03-20 16:17:00,32.7,13.7,29.66,NNE,22,4.6,0.0,45,0.00,CLR,,0.00,WeatherDisplay:10.37,2013-03-20 20:17:00,
2013-03-20 16:18:00,32.7,13.7,29.66,NNE,22,5.4,0.0,45,0.00,CLR,,0.00,WeatherDisplay:10.37,2013-03-20 20:18:00,
2013-03-20 16:20:00,32.5,14.0,29.66,NNE,22,4.6,4.6,46,0.00,CLR,,0.00,WeatherDisplay:10.37,2013-03-20 20:20:00,
2013-03-20 16:21:00,32.5,14.0,29.66,ENE,68,2.3,2.3,46,0.00,CLR,,0.00,WeatherDisplay:10.37,2013-03-20 20:21:00,
2013-03-20 16:22:00,32.4,14.8,29.66,ENE,68,3.1,3.1,48,0.00,CLR,,0.00,WeatherDisplay:10.37,2013-03-20 20:22:00,
2013-03-20 16:23:00,32.4,14.8,29.66,ENE,68,3.5,3.5,48,0.00,CLR,,0.00,WeatherDisplay:10.37,2013-03-20 20:23:00,
2013-03-20 16:25:00,32.7,15.6,29.66,NNE,22,3.5,0.0,49,0.00,CLR,,0.00,WeatherDisplay:10.37,2013-03-20 20:25:00,
2013-03-20 16:26:00,32.9,16.3,29.66,NNE,22,1.1,0.0,50,0.00,CLR,,0.00,WeatherDisplay:10.37,2013-03-20 20:26:00,
2013-03-20 16:28:00,32.7,16.1,29.66,NE,45,1.1,0.0,50,0.00,CLR,,0.00,WeatherDisplay:10.37,2013-03-20 20:28:00,
2013-03-20 16:31:00,32.7,15.6,29.66,ENE,68,1.6,0.0,49,0.00,CLR,,0.00,WeatherDisplay:10.37,2013-03-20 20:31:00,
2013-03-20 16:33:00,32.5,15.5,29.66,North,0,0.0,0.0,49,0.00,CLR,,0.00,WeatherDisplay:10.37,2013-03-20 20:33:00,
2013-03-20 16:36:00,32.4,15.3,29.66,ENE,68,0.0,0.0,49,0.00,CLR,,0.00,WeatherDisplay:10.37,2013-03-20 20:36:00,
2013-03-20 16:38:00,32.4,15.3,29.66,North,0,0.0,0.0,49,0.00,CLR,,0.00,WeatherDisplay:10.37,2013-03-20 20:38:00,
2013-03-20 16:39:00,32.2,15.6,29.66,NNE,22,4.6,0.0,50,0.00,CLR,,0.00,WeatherDisplay:10.37,2013-03-20 20:39:00,
2013-03-20 16:41:00,32.2,15.6,29.66,NNE,22,3.6,3.6,50,0.00,CLR,,0.00,WeatherDisplay:10.37,2013-03-20 20:41:00,
2013-03-20 16:42:00,32.2,16.1,29.66,ENE,68,3.5,0.0,51,0.00,CLR,,0.00,WeatherDisplay:10.37,2013-03-20 20:42:00,
2013-03-20 16:43:00,32.4,16.2,29.66,North,0,0.0,0.0,51,0.00,CLR,,0.00,WeatherDisplay:10.37,2013-03-20 20:43:00,
2013-03-20 16:44:00,32.5,16.4,29.66,ESE,112,1.1,0.0,51,0.00,CLR,,0.00,WeatherDisplay:10.37,2013-03-20 20:44:00,
2013-03-20 16:46:00,32.7,17.5,29.66,NE,45,0.0,0.0,53,0.00,CLR,,0.00,WeatherDisplay:10.37,2013-03-20 20:46:00,
2013-03-20 16:47:00,32.9,17.2,29.66,NNE,22,4.6,4.6,52,0.00,CLR,,0.00,WeatherDisplay:10.37,2013-03-20 20:47:00,
2013-03-20 16:48:00,32.9,17.6,29.66,ENE,68,1.1,0.0,53,0.00,CLR,,0.00,WeatherDisplay:10.37,2013-03-20 20:48:00,
2013-03-20 16:49:00,33.1,17.3,29.66,North,0,1.1,0.0,52,0.00,CLR,,0.00,WeatherDisplay:10.37,2013-03-20 20:49:00,
2013-03-20 16:51:00,32.9,17.2,29.66,NNE,22,1.1,0.0,52,0.00,CLR,,0.00,WeatherDisplay:10.37,2013-03-20 20:51:00,
2013-03-20 16:52:00,33.1,17.3,29.66,ENE,68,0.0,0.0,52,0.00,CLR,,0.00,WeatherDisplay:10.37,2013-03-20 20:52:00,
2013-03-20 16:53:00,33.1,17.3,29.66,East,90,1.1,0.0,52,0.00,CLR,,0.00,WeatherDisplay:10.37,2013-03-20 20:53:00,
2013-03-20 16:54:00,33.1,17.3,29.66,ENE,68,0.0,0.0,52,0.00,CLR,,0.00,WeatherDisplay:10.37,2013-03-20 20:54:00,
2013-03-20 16:57:00,33.4,17.7,29.66,NNE,22,0.0,0.0,52,0.00,CLR,,0.00,WeatherDisplay:10.37,2013-03-20 20:57:00,
2013-03-20 16:58:00,34.3,18.1,29.66,SSW,202,0.0,0.0,51,0.00,CLR,,0.00,WeatherDisplay:10.37,2013-03-20 20:58:00,
2013-03-20 16:59:00,34.3,18.1,29.66,NNW,338,1.1,0.0,51,0.00,CLR,,0.00,WeatherDisplay:10.37,2013-03-20 20:59:00,
2013-03-20 17:02:00,33.8,15.7,29.66,NW,315,4.6,4.6,47,0.00,CLR,,0.00,WeatherDisplay:10.37,2013-03-20 21:02:00,
2013-03-20 17:03:00,33.4,14.3,29.66,NNW,338,5.8,5.8,45,0.00,CLR,,0.00,WeatherDisplay:10.37,2013-03-20 21:03:00,
2013-03-20 17:04:00,33.3,14.2,29.66,NW,315,6.9,6.9,45,0.00,CLR,,0.00,WeatherDisplay:10.37,2013-03-20 21:04:00,
2013-03-20 17:07:00,32.9,14.4,29.66,NNW,338,3.5,0.0,46,0.00,CLR,,0.00,WeatherDisplay:10.37,2013-03-20 21:07:00,
2013-03-20 17:08:00,32.5,15.5,29.66,NNE,22,2.3,2.3,49,0.00,CLR,,0.00,WeatherDisplay:10.37,2013-03-20 21:08:00,
2013-03-20 17:09:00,32.5,16.4,29.66,ESE,112,3.5,3.5,51,0.00,CLR,,0.00,WeatherDisplay:10.37,2013-03-20 21:09:00,
2013-03-20 17:12:00,32.2,17.4,29.66,WNW,292,2.3,0.0,54,0.00,CLR,,0.00,WeatherDisplay:10.37,2013-03-20 21:12:00,
2013-03-20 17:13:00,31.8,17.9,29.66,ENE,68,1.1,1.4,56,0.00,CLR,,0.00,WeatherDisplay:10.37,2013-03-20 21:13:00,
2013-03-20 17:14:00,31.8,17.9,29.66,East,90,0.0,0.0,56,0.00,CLR,,0.00,WeatherDisplay:10.37,2013-03-20 21:14:00,
2013-03-20 17:17:00,32.4,20.4,29.66,NNE,22,0.0,0.0,61,0.00,CLR,,0.00,WeatherDisplay:10.37,2013-03-20 21:17:00,
2013-03-20 17:19:00,32.5,20.2,29.66,NNW,338,0.0,0.0,60,0.00,CLR,,0.00,WeatherDisplay:10.37,2013-03-20 21:19:00,
2013-03-20 17:20:00,32.5,20.6,29.66,NE,45,0.0,0.0,61,0.00,CLR,,0.00,WeatherDisplay:10.37,2013-03-20 21:20:00,
2013-03-20 17:22:00,32.5,21.0,29.66,NNE,22,0.0,0.0,62,0.00,CLR,,0.00,WeatherDisplay:10.37,2013-03-20 21:22:00,
2013-03-20 17:24:00,32.4,21.5,29.66,NW,315,4.6,4.6,64,0.00,CLR,,0.00,WeatherDisplay:10.37,2013-03-20 21:24:00,
2013-03-20 17:25:00,32.4,21.5,29.66,NW,315,4.6,4.6,64,0.00,CLR,,0.00,WeatherDisplay:10.37,2013-03-20 21:25:00,
2013-03-20 17:27:00,32.0,20.4,29.66,NNE,22,3.3,3.3,62,0.00,CLR,,0.00,WeatherDisplay:10.37,2013-03-20 21:27:00,
2013-03-20 17:28:00,32.0,20.4,29.66,NNW,338,1.1,1.1,62,0.00,CLR,,0.00,WeatherDisplay:10.37,2013-03-20 21:28:00,
2013-03-20 17:29:00,32.2,20.6,29.66,East,90,1.1,0.0,62,0.00,CLR,,0.00,WeatherDisplay:10.37,2013-03-20 21:29:00,
2013-03-20 17:30:00,32.2,20.2,29.66,ESE,112,0.0,0.0,61,0.00,CLR,,0.00,WeatherDisplay:10.37,2013-03-20 21:30:00,
2013-03-20 17:33:00,32.0,19.7,29.66,WNW,292,2.3,0.0,60,0.00,CLR,,0.00,WeatherDisplay:10.37,2013-03-20 21:33:00,
2013-03-20 17:34:00,32.0,19.3,29.66,WNW,292,2.3,0.0,59,0.00,CLR,,0.00,WeatherDisplay:10.37,2013-03-20 21:34:00,
2013-03-20 17:35:00,32.0,19.3,29.66,NNW,338,0.0,0.0,59,0.00,CLR,,0.00,WeatherDisplay:10.37,2013-03-20 21:35:00,
2013-03-20 17:38:00,31.6,18.5,29.66,WNW,292,0.0,0.0,58,0.00,CLR,,0.00,WeatherDisplay:10.37,2013-03-20 21:38:00,
2013-03-20 17:39:00,31.6,18.5,29.66,NW,315,0.0,0.0,58,0.00,CLR,,0.00,WeatherDisplay:10.37,2013-03-20 21:39:00,
2013-03-20 17:40:00,31.3,18.6,29.66,WNW,292,5.6,5.6,59,0.00,CLR,,0.00,WeatherDisplay:10.37,2013-03-20 21:40:00,
2013-03-20 17:43:00,31.1,18.0,29.66,North,0,5.8,5.8,58,0.00,CLR,,0.00,WeatherDisplay:10.37,2013-03-20 21:43:00,
2013-03-20 17:44:00,31.1,18.4,29.66,NW,315,3.6,3.6,59,0.00,CLR,,0.00,WeatherDisplay:10.37,2013-03-20 21:44:00,
2013-03-20 17:46:00,30.9,18.7,29.66,North,0,1.1,1.1,60,0.00,CLR,,0.00,WeatherDisplay:10.37,2013-03-20 21:46:00,
2013-03-20 17:48:00,30.9,18.7,29.66,ESE,112,0.0,0.0,60,0.00,CLR,,0.00,WeatherDisplay:10.37,2013-03-20 21:48:00,
2013-03-20 17:49:00,30.7,18.9,29.66,NNW,338,0.0,0.0,61,0.00,CLR,,0.00,WeatherDisplay:10.37,2013-03-20 21:49:00,
2013-03-20 17:51:00,30.9,19.0,29.66,North,0,0.0,0.0,61,0.00,CLR,,0.00,WeatherDisplay:10.37,2013-03-20 21:51:00,
2013-03-20 17:53:00,30.7,19.2,29.66,NNE,22,0.0,0.0,62,0.00,CLR,,0.00,WeatherDisplay:10.37,2013-03-20 21:53:00,
2013-03-20 17:54:00,30.7,19.6,29.66,NW,315,3.5,3.5,63,0.00,CLR,,0.00,WeatherDisplay:10.37,2013-03-20 21:54:00,
2013-03-20 17:56:00,30.6,19.5,29.66,NNE,22,1.1,1.1,63,0.00,CLR,,0.00,WeatherDisplay:10.37,2013-03-20 21:56:00,
2013-03-20 17:58:00,30.6,19.5,29.66,NNE,22,0.0,0.0,63,0.00,CLR,,0.00,WeatherDisplay:10.37,2013-03-20 21:58:00,
2013-03-20 18:00:00,30.4,19.6,29.66,NNE,22,1.1,0.0,64,0.00,CLR,,0.00,WeatherDisplay:10.37,2013-03-20 22:00:00,
2013-03-20 18:01:00,30.4,19.6,29.66,NNW,338,0.0,0.9,64,0.00,CLR,,0.00,WeatherDisplay:10.37,2013-03-20 22:01:00,
2013-03-20 18:03:00,30.4,19.6,29.66,NNE,22,2.3,0.0,64,0.00,CLR,,0.00,WeatherDisplay:10.37,2013-03-20 22:03:00,
2013-03-20 18:04:00,30.4,20.0,29.66,ENE,68,2.3,0.0,65,0.00,CLR,,0.00,WeatherDisplay:10.37,2013-03-20 22:04:00,
2013-03-20 18:05:00,30.2,20.2,29.66,ESE,112,5.8,5.8,66,0.00,CLR,,0.00,WeatherDisplay:10.37,2013-03-20 22:05:00,
2013-03-20 18:06:00,29.8,20.2,29.66,NNW,338,5.8,0.0,67,0.00,CLR,,0.00,WeatherDisplay:10.37,2013-03-20 22:06:00,
2013-03-20 18:08:00,29.7,21.1,29.66,SSE,158,0.0,0.0,70,0.00,CLR,,0.00,WeatherDisplay:10.37,2013-03-20 22:08:00,
2013-03-20 18:09:00,29.5,20.9,29.66,NNE,22,0.0,0.0,70,0.00,CLR,,0.00,WeatherDisplay:10.37,2013-03-20 22:09:00,
2013-03-20 18:10:00,29.5,21.2,29.66,NE,45,3.5,3.5,71,0.00,CLR,,0.00,WeatherDisplay:10.37,2013-03-20 22:10:00,
2013-03-20 18:12:00,29.5,21.6,29.66,NNE,22,0.0,0.0,72,0.00,CLR,,0.00,WeatherDisplay:10.37,2013-03-20 22:12:00,
2013-03-20 18:13:00,29.3,21.7,29.66,NNE,22,1.4,0.0,73,0.00,CLR,,0.00,WeatherDisplay:10.37,2013-03-20 22:13:00,
2013-03-20 18:14:00,29.3,21.7,29.66,WSW,248,1.1,0.0,73,0.00,CLR,,0.00,WeatherDisplay:10.37,2013-03-20 22:14:00,
2013-03-20 18:15:00,29.3,21.7,29.69,North,0,1.1,0.0,73,0.00,CLR,,0.00,WeatherDisplay:10.37,2013-03-20 22:15:00,
2013-03-20 18:17:00,29.3,22.0,29.69,NNW,338,4.5,0.0,74,0.00,CLR,,0.00,WeatherDisplay:10.37,2013-03-20 22:17:00,
2013-03-20 18:18:00,29.3,22.4,29.69,SSW,202,4.6,4.6,75,0.00,CLR,,0.00,WeatherDisplay:10.37,2013-03-20 22:18:00,
2013-03-20 18:19:00,29.3,22.4,29.69,WNW,292,3.5,0.0,75,0.00,CLR,,0.00,WeatherDisplay:10.37,2013-03-20 22:19:00,
2013-03-20 18:20:00,29.3,22.4,29.69,WNW,292,4.3,4.3,75,0.00,CLR,,0.00,WeatherDisplay:10.37,2013-03-20 22:20:00,
2013-03-20 18:22:00,29.3,22.7,29.69,WNW,292,5.8,5.8,76,0.00,CLR,,0.00,WeatherDisplay:10.37,2013-03-20 22:22:00,
2013-03-20 18:23:00,29.3,23.0,29.69,West,270,2.3,0.0,77,0.00,CLR,,0.00,WeatherDisplay:10.37,2013-03-20 22:23:00,
2013-03-20 18:24:00,29.3,22.7,29.69,NNW,338,0.0,0.0,76,0.00,CLR,,0.00,WeatherDisplay:10.37,2013-03-20 22:24:00,
2013-03-20 18:25:00,29.3,23.0,29.69,ENE,68,0.0,0.0,77,0.00,CLR,,0.00,WeatherDisplay:10.37,2013-03-20 22:25:00,
2013-03-20 18:27:00,29.1,22.5,29.69,WSW,248,1.1,0.0,76,0.00,CLR,,0.00,WeatherDisplay:10.37,2013-03-20 22:27:00,
2013-03-20 18:28:00,29.1,22.5,29.69,NNW,338,1.1,0.0,76,0.00,CLR,,0.00,WeatherDisplay:10.37,2013-03-20 22:28:00,
2013-03-20 18:29:00,29.1,22.8,29.66,NNW,338,1.1,0.0,77,0.00,CLR,,0.00,WeatherDisplay:10.37,2013-03-20 22:29:00,
2013-03-20 18:30:00,29.1,22.8,29.66,WSW,248,0.0,0.0,77,0.00,CLR,,0.00,WeatherDisplay:10.37,2013-03-20 22:30:00,
2013-03-20 18:32:00,28.9,22.6,29.66,North,0,1.1,0.0,77,0.00,CLR,,0.00,WeatherDisplay:10.37,2013-03-20 22:32:00,
2013-03-20 18:33:00,29.1,22.8,29.66,WNW,292,0.9,0.0,77,0.00,CLR,,0.00,WeatherDisplay:10.37,2013-03-20 22:33:00,
2013-03-20 18:35:00,29.1,22.8,29.66,NNW,338,0.0,0.0,77,0.00,CLR,,0.00,WeatherDisplay:10.37,2013-03-20 22:35:00,
2013-03-20 18:36:00,29.1,22.8,29.66,ESE,112,0.0,0.0,77,0.00,CLR,,0.00,WeatherDisplay:10.37,2013-03-20 22:36:00,
2013-03-20 18:37:00,29.1,22.8,29.66,ENE,68,0.0,0.0,77,0.00,CLR,,0.00,WeatherDisplay:10.37,2013-03-20 22:37:00,
2013-03-20 18:39:00,28.9,22.6,29.66,North,0,0.0,0.0,77,0.00,CLR,,0.00,WeatherDisplay:10.37,2013-03-20 22:39:00,
2013-03-20 18:40:00,28.9,22.6,29.66,East,90,0.0,0.0,77,0.00,CLR,,0.00,WeatherDisplay:10.37,2013-03-20 22:40:00,
2013-03-20 18:41:00,28.9,22.6,29.66,WNW,292,0.0,0.0,77,0.00,CLR,,0.00,WeatherDisplay:10.37,2013-03-20 22:41:00,
2013-03-20 18:42:00,28.8,22.5,29.66,WSW,248,0.0,0.0,77,0.00,CLR,,0.00,WeatherDisplay:10.37,2013-03-20 22:42:00,
2013-03-20 18:44:00,28.8,22.5,29.66,NNW,338,0.0,0.0,77,0.00,CLR,,0.00,WeatherDisplay:10.37,2013-03-20 22:44:00,
2013-03-20 18:45:00,28.8,22.5,29.69,SW,225,0.0,0.0,77,0.00,CLR,,0.00,WeatherDisplay:10.37,2013-03-20 22:45:00,
2013-03-20 18:46:00,28.6,22.3,29.69,WNW,292,0.0,0.0,77,0.00,CLR,,0.00,WeatherDisplay:10.37,2013-03-20 22:46:00,
2013-03-20 18:48:00,28.6,22.3,29.69,WNW,292,5.8,5.8,77,0.00,CLR,,0.00,WeatherDisplay:10.37,2013-03-20 22:48:00,
2013-03-20 18:49:00,28.6,22.3,29.69,NE,45,1.1,1.1,77,0.00,CLR,,0.00,WeatherDisplay:10.37,2013-03-20 22:49:00,
2013-03-20 18:50:00,28.6,22.3,29.69,WNW,292,0.0,0.0,77,0.00,CLR,,0.00,WeatherDisplay:10.37,2013-03-20 22:50:00,
2013-03-20 18:51:00,28.4,22.1,29.69,NNW,338,6.0,6.0,77,0.00,CLR,,0.00,WeatherDisplay:10.37,2013-03-20 22:51:00,
2013-03-20 18:53:00,28.4,22.4,29.69,WNW,292,6.9,6.9,78,0.00,CLR,,0.00,WeatherDisplay:10.37,2013-03-20 22:53:00,
2013-03-20 18:54:00,28.4,22.1,29.69,North,0,6.9,6.9,77,0.00,CLR,,0.00,WeatherDisplay:10.37,2013-03-20 22:54:00,
2013-03-20 18:55:00,28.4,22.1,29.69,ESE,112,6.9,6.9,77,0.00,CLR,,0.00,WeatherDisplay:10.37,2013-03-20 22:55:00,
2013-03-20 18:56:00,28.4,22.1,29.69,NNE,22,0.0,0.0,77,0.00,CLR,,0.00,WeatherDisplay:10.37,2013-03-20 22:56:00,
2013-03-20 18:58:00,28.4,22.1,29.69,SSE,158,2.3,0.0,77,0.00,CLR,,0.00,WeatherDisplay:10.37,2013-03-20 22:58:00,
2013-03-20 18:59:00,28.2,21.9,29.69,WNW,292,0.0,0.0,77,0.00,CLR,,0.00,WeatherDisplay:10.37,2013-03-20 22:59:00,
2013-03-20 19:00:00,28.2,21.9,29.69,NNW,338,1.1,0.0,77,0.00,CLR,,0.00,WeatherDisplay:10.37,2013-03-20 23:00:00,
2013-03-20 19:01:00,28.0,21.8,29.69,WNW,292,0.0,0.0,77,0.00,CLR,,0.00,WeatherDisplay:10.37,2013-03-20 23:01:00,
2013-03-20 19:03:00,28.0,21.4,29.69,NW,315,0.0,0.0,76,0.00,CLR,,0.00,WeatherDisplay:10.37,2013-03-20 23:03:00,
2013-03-20 19:04:00,27.9,21.3,29.69,NW,315,4.6,4.6,76,0.00,CLR,,0.00,WeatherDisplay:10.37,2013-03-20 23:04:00,
2013-03-20 19:05:00,27.9,21.3,29.69,NE,45,0.0,0.0,76,0.00,CLR,,0.00,WeatherDisplay:10.37,2013-03-20 23:05:00,
2013-03-20 19:07:00,27.9,21.3,29.69,NNE,22,1.1,0.0,76,0.00,CLR,,0.00,WeatherDisplay:10.37,2013-03-20 23:07:00,
2013-03-20 19:08:00,27.9,21.3,29.69,NNE,22,0.0,0.0,76,0.00,CLR,,0.00,WeatherDisplay:10.37,2013-03-20 23:08:00,
2013-03-20 19:09:00,27.9,21.3,29.69,NNW,338,0.0,0.0,76,0.00,CLR,,0.00,WeatherDisplay:10.37,2013-03-20 23:09:00,
2013-03-20 19:10:00,27.7,21.1,29.69,NNW,338,0.0,0.0,76,0.00,CLR,,0.00,WeatherDisplay:10.37,2013-03-20 23:10:00,
2013-03-20 19:12:00,27.7,20.8,29.69,West,270,0.0,0.0,75,0.00,CLR,,0.00,WeatherDisplay:10.37,2013-03-20 23:12:00,
2013-03-20 19:13:00,27.5,20.6,29.69,NNE,22,0.0,0.0,75,0.00,CLR,,0.00,WeatherDisplay:10.37,2013-03-20 23:13:00,
2013-03-20 19:14:00,27.5,20.6,29.69,North,0,0.0,0.0,75,0.00,CLR,,0.00,WeatherDisplay:10.37,2013-03-20 23:14:00,
2013-03-20 19:15:00,27.5,20.6,29.69,NNE,22,0.0,0.0,75,0.00,CLR,,0.00,WeatherDisplay:10.37,2013-03-20 23:15:00,
2013-03-20 19:17:00,27.5,20.6,29.69,NNE,22,0.0,0.0,75,0.00,CLR,,0.00,WeatherDisplay:10.37,2013-03-20 23:17:00,
2013-03-20 19:18:00,27.3,20.4,29.69,North,0,0.0,0.0,75,0.00,CLR,,0.00,WeatherDisplay:10.37,2013-03-20 23:18:00,
2013-03-20 19:19:00,27.3,20.4,29.69,NE,45,2.3,0.0,75,0.00,CLR,,0.00,WeatherDisplay:10.37,2013-03-20 23:19:00,
2013-03-20 19:20:00,27.3,20.4,29.69,NNW,338,0.0,0.0,75,0.00,CLR,,0.00,WeatherDisplay:10.37,2013-03-20 23:20:00,
2013-03-20 19:22:00,27.3,20.4,29.69,WNW,292,0.0,0.0,75,0.00,CLR,,0.00,WeatherDisplay:10.37,2013-03-20 23:22:00,
2013-03-20 19:23:00,27.3,20.4,29.69,West,270,3.5,3.5,75,0.00,CLR,,0.00,WeatherDisplay:10.37,2013-03-20 23:23:00,
2013-03-20 19:24:00,27.3,20.4,29.69,NW,315,2.3,0.0,75,0.00,CLR,,0.00,WeatherDisplay:10.37,2013-03-20 23:24:00,
2013-03-20 19:25:00,27.3,20.4,29.69,NNE,22,0.0,0.0,75,0.00,CLR,,0.00,WeatherDisplay:10.37,2013-03-20 23:25:00,
2013-03-20 19:28:00,27.3,20.4,29.69,WSW,248,1.1,0.0,75,0.00,CLR,,0.00,WeatherDisplay:10.37,2013-03-20 23:28:00,
2013-03-20 19:30:00,27.5,20.6,29.69,SE,135,1.4,0.0,75,0.00,CLR,,0.00,WeatherDisplay:10.37,2013-03-20 23:30:00,
2013-03-20 19:33:00,27.5,20.6,29.69,North,0,0.0,0.0,75,0.00,CLR,,0.00,WeatherDisplay:10.37,2013-03-20 23:33:00,
2013-03-20 19:35:00,27.5,20.6,29.69,NNE,22,2.3,0.0,75,0.00,CLR,,0.00,WeatherDisplay:10.37,2013-03-20 23:35:00,
2013-03-20 19:38:00,27.5,20.6,29.69,NNE,22,2.3,2.3,75,0.00,CLR,,0.00,WeatherDisplay:10.37,2013-03-20 23:38:00,
2013-03-20 19:40:00,27.5,20.3,29.69,NE,45,0.0,0.0,74,0.00,CLR,,0.00,WeatherDisplay:10.37,2013-03-20 23:40:00,
2013-03-20 19:43:00,27.7,20.5,29.69,NNE,22,0.0,0.0,74,0.00,CLR,,0.00,WeatherDisplay:10.37,2013-03-20 23:43:00,
2013-03-20 19:44:00,27.7,20.5,29.69,NNE,22,0.0,0.0,74,0.00,CLR,,0.00,WeatherDisplay:10.37,2013-03-20 23:44:00,
2013-03-20 19:45:00,27.5,20.3,29.69,ESE,112,0.0,0.0,74,0.00,CLR,,0.00,WeatherDisplay:10.37,2013-03-20 23:45:00,
2013-03-20 19:48:00,27.5,20.6,29.69,North,0,0.0,0.0,75,0.00,CLR,,0.00,WeatherDisplay:10.37,2013-03-20 23:48:00,
2013-03-20 19:49:00,27.5,20.6,29.69,NNE,22,0.0,0.0,75,0.00,CLR,,0.00,WeatherDisplay:10.37,2013-03-20 23:49:00,
2013-03-20 19:50:00,27.5,20.6,29.69,NNE,22,0.0,0.0,75,0.00,CLR,,0.00,WeatherDisplay:10.37,2013-03-20 23:50:00,
2013-03-20 19:53:00,27.3,20.1,29.69,ESE,112,0.0,0.0,74,0.00,CLR,,0.00,WeatherDisplay:10.37,2013-03-20 23:53:00,
2013-03-20 19:54:00,27.3,20.1,29.69,ESE,112,0.0,0.0,74,0.00,CLR,,0.00,WeatherDisplay:10.37,2013-03-20 23:54:00,
2013-03-20 19:55:00,27.3,20.1,29.69,ENE,68,0.0,0.0,74,0.00,CLR,,0.00,WeatherDisplay:10.37,2013-03-20 23:55:00,
2013-03-20 19:59:00,27.1,20.3,29.69,NNE,22,0.0,0.0,75,0.00,CLR,,0.00,WeatherDisplay:10.37,2013-03-20 23:59:00,
2013-03-20 20:00:00,27.1,20.6,29.69,WSW,248,0.0,0.0,76,0.00,CLR,,0.00,WeatherDisplay:10.37,2013-03-21 00:00:00,
2013-03-20 20:04:00,27.0,20.7,29.69,SSW,202,0.0,0.0,77,0.00,CLR,,0.00,WeatherDisplay:10.37,2013-03-21 00:04:00,
2013-03-20 20:05:00,27.1,20.9,29.69,NNW,338,0.0,0.0,77,0.00,CLR,,0.00,WeatherDisplay:10.37,2013-03-21 00:05:00,
2013-03-20 20:09:00,27.1,21.2,29.69,South,180,0.0,0.0,78,0.00,CLR,,0.00,WeatherDisplay:10.37,2013-03-21 00:09:00,
2013-03-20 20:10:00,27.1,21.2,29.69,ENE,68,0.0,0.0,78,0.00,CLR,,0.00,WeatherDisplay:10.37,2013-03-21 00:10:00,
2013-03-20 20:11:00,27.0,21.0,29.69,NNW,338,0.0,0.0,78,0.00,CLR,,0.00,WeatherDisplay:10.37,2013-03-21 00:11:00,
2013-03-20 20:14:00,27.0,21.3,29.69,NNE,22,1.4,0.0,79,0.00,CLR,,0.00,WeatherDisplay:10.37,2013-03-21 00:14:00,
2013-03-20 20:15:00,27.0,21.3,29.69,NNE,22,1.1,0.0,79,0.00,CLR,,0.00,WeatherDisplay:10.37,2013-03-21 00:15:00,
2013-03-20 20:16:00,27.0,21.3,29.69,North,0,0.0,0.0,79,0.00,CLR,,0.00,WeatherDisplay:10.37,2013-03-21 00:16:00,
2013-03-20 20:19:00,26.6,21.3,29.69,NNW,338,0.0,0.0,80,0.00,CLR,,0.00,WeatherDisplay:10.37,2013-03-21 00:19:00,
2013-03-20 20:20:00,26.6,21.3,29.69,ESE,112,0.0,0.0,80,0.00,CLR,,0.00,WeatherDisplay:10.37,2013-03-21 00:20:00,
2013-03-20 20:21:00,26.6,21.3,29.69,SSE,158,0.0,0.0,80,0.00,CLR,,0.00,WeatherDisplay:10.37,2013-03-21 00:21:00,
2013-03-20 20:24:00,26.4,20.8,29.69,NNW,338,0.0,0.0,79,0.00,CLR,,0.00,WeatherDisplay:10.37,2013-03-21 00:24:00,
2013-03-20 20:25:00,26.4,20.8,29.69,NNW,338,0.0,0.0,79,0.00,CLR,,0.00,WeatherDisplay:10.37,2013-03-21 00:25:00,
2013-03-20 20:26:00,26.4,20.8,29.69,NNW,338,0.0,0.0,79,0.00,CLR,,0.00,WeatherDisplay:10.37,2013-03-21 00:26:00,
2013-03-20 20:29:00,26.2,20.6,29.69,East,90,0.0,0.0,79,0.00,CLR,,0.00,WeatherDisplay:10.37,2013-03-21 00:29:00,
2013-03-20 20:30:00,26.2,20.6,29.69,NNE,22,0.0,0.0,79,0.00,CLR,,0.00,WeatherDisplay:10.37,2013-03-21 00:30:00,
2013-03-20 20:32:00,26.2,20.6,29.69,ENE,68,0.0,0.0,79,0.00,CLR,,0.00,WeatherDisplay:10.37,2013-03-21 00:32:00,
2013-03-20 20:34:00,26.2,20.6,29.69,NE,45,0.0,0.0,79,0.00,CLR,,0.00,WeatherDisplay:10.37,2013-03-21 00:34:00,
2013-03-20 20:35:00,26.2,20.6,29.69,NE,45,0.0,0.0,79,0.00,CLR,,0.00,WeatherDisplay:10.37,2013-03-21 00:35:00,
2013-03-20 20:36:00,26.2,20.3,29.69,South,180,0.0,0.0,78,0.00,CLR,,0.00,WeatherDisplay:10.37,2013-03-21 00:36:00,
2013-03-20 20:37:00,26.2,20.3,29.69,NNW,338,0.0,0.0,78,0.00,CLR,,0.00,WeatherDisplay:10.37,2013-03-21 00:37:00,
2013-03-20 20:39:00,26.2,20.3,29.69,WSW,248,0.0,0.0,78,0.00,CLR,,0.00,WeatherDisplay:10.37,2013-03-21 00:39:00,
2013-03-20 20:40:00,26.4,20.5,29.69,ENE,68,0.0,0.0,78,0.00,CLR,,0.00,WeatherDisplay:10.37,2013-03-21 00:40:00,
2013-03-20 20:41:00,26.4,20.5,29.69,ESE,112,0.0,0.0,78,0.00,CLR,,0.00,WeatherDisplay:10.37,2013-03-21 00:41:00,
2013-03-20 20:43:00,26.4,20.5,29.69,East,90,0.0,0.9,78,0.00,CLR,,0.00,WeatherDisplay:10.37,2013-03-21 00:43:00,
2013-03-20 20:45:00,26.6,20.7,29.69,WNW,292,1.1,0.0,78,0.00,CLR,,0.00,WeatherDisplay:10.37,2013-03-21 00:45:00,
2013-03-20 20:46:00,26.6,20.4,29.69,East,90,0.0,0.0,77,0.00,CLR,,0.00,WeatherDisplay:10.37,2013-03-21 00:46:00,
2013-03-20 20:48:00,26.6,20.4,29.69,NW,315,0.0,0.0,77,0.00,CLR,,0.00,WeatherDisplay:10.37,2013-03-21 00:48:00,
2013-03-20 20:50:00,26.8,20.2,29.69,NNE,22,5.8,0.0,76,0.00,CLR,,0.00,WeatherDisplay:10.37,2013-03-21 00:50:00,
2013-03-20 20:52:00,26.8,20.2,29.69,West,270,0.0,0.0,76,0.00,CLR,,0.00,WeatherDisplay:10.37,2013-03-21 00:52:00,
2013-03-20 20:53:00,26.8,20.2,29.69,East,90,0.0,0.0,76,0.00,CLR,,0.00,WeatherDisplay:10.37,2013-03-21 00:53:00,
2013-03-20 20:55:00,26.6,20.1,29.69,WSW,248,0.0,0.0,76,0.00,CLR,,0.00,WeatherDisplay:10.37,2013-03-21 00:55:00,
2013-03-20 20:57:00,26.6,20.1,29.69,NNE,22,0.0,0.0,76,0.00,CLR,,0.00,WeatherDisplay:10.37,2013-03-21 00:57:00,
2013-03-20 20:58:00,26.6,20.1,29.69,ESE,112,0.0,0.0,76,0.00,CLR,,0.00,WeatherDisplay:10.37,2013-03-21 00:58:00,
2013-03-20 21:00:00,26.4,19.9,29.69,East,90,0.0,0.0,76,0.00,CLR,,0.00,WeatherDisplay:10.37,2013-03-21 01:00:00,
2013-03-20 21:01:00,26.4,19.9,29.69,East,90,0.0,0.0,76,0.00,CLR,,0.00,WeatherDisplay:10.37,2013-03-21 01:01:00,
2013-03-20 21:02:00,26.4,19.9,29.69,WNW,292,0.0,0.0,76,0.00,CLR,,0.00,WeatherDisplay:10.37,2013-03-21 01:02:00,
2013-03-20 21:04:00,26.4,19.6,29.69,NNE,22,0.0,0.0,75,0.00,CLR,,0.00,WeatherDisplay:10.37,2013-03-21 01:04:00,
2013-03-20 21:05:00,26.2,19.4,29.69,WNW,292,0.0,0.0,75,0.00,CLR,,0.00,WeatherDisplay:10.37,2013-03-21 01:05:00,
2013-03-20 21:07:00,26.1,19.2,29.69,NNE,22,0.0,0.0,75,0.00,CLR,,0.00,WeatherDisplay:10.37,2013-03-21 01:07:00,
2013-03-20 21:09:00,26.1,19.2,29.69,NW,315,0.0,0.0,75,0.00,CLR,,0.00,WeatherDisplay:10.37,2013-03-21 01:09:00,
2013-03-20 21:10:00,26.1,19.2,29.69,NNW,338,0.0,0.0,75,0.00,CLR,,0.00,WeatherDisplay:10.37,2013-03-21 01:10:00,
2013-03-20 21:12:00,26.1,19.2,29.69,NNW,338,0.0,0.0,75,0.00,CLR,,0.00,WeatherDisplay:10.37,2013-03-21 01:12:00,
2013-03-20 21:14:00,26.1,19.2,29.69,ESE,112,0.0,0.0,75,0.00,CLR,,0.00,WeatherDisplay:10.37,2013-03-21 01:14:00,
2013-03-20 21:15:00,25.9,19.4,29.69,NNW,338,0.0,0.0,76,0.00,CLR,,0.00,WeatherDisplay:10.37,2013-03-21 01:15:00,
2013-03-20 21:17:00,25.9,19.4,29.69,North,0,0.0,0.0,76,0.00,CLR,,0.00,WeatherDisplay:10.37,2013-03-21 01:17:00,
2013-03-20 21:19:00,25.9,19.4,29.69,South,180,0.0,0.0,76,0.00,CLR,,0.00,WeatherDisplay:10.37,2013-03-21 01:19:00,
2013-03-20 21:20:00,25.9,19.4,29.69,WNW,292,0.0,0.0,76,0.00,CLR,,0.00,WeatherDisplay:10.37,2013-03-21 01:20:00,
2013-03-20 21:22:00,25.9,19.7,29.69,West,270,2.3,0.0,77,0.00,CLR,,0.00,WeatherDisplay:10.37,2013-03-21 01:22:00,
2013-03-20 21:25:00,25.9,20.0,29.69,NNW,338,2.3,2.3,78,0.00,CLR,,0.00,WeatherDisplay:10.37,2013-03-21 01:25:00,
2013-03-20 21:28:00,25.9,20.0,29.69,NNE,22,5.8,0.0,78,0.00,CLR,,0.00,WeatherDisplay:10.37,2013-03-21 01:28:00,
2013-03-20 21:29:00,25.9,20.0,29.69,NW,315,2.3,0.0,78,0.00,CLR,,0.00,WeatherDisplay:10.37,2013-03-21 01:29:00,
2013-03-20 21:30:00,25.9,20.0,29.72,NNE,22,2.6,2.6,78,0.00,CLR,,0.00,WeatherDisplay:10.37,2013-03-21 01:30:00,
2013-03-20 21:33:00,25.9,20.3,29.72,NW,315,3.5,0.0,79,0.00,CLR,,0.00,WeatherDisplay:10.37,2013-03-21 01:33:00,
2013-03-20 21:34:00,25.9,20.3,29.72,WSW,248,1.1,0.0,79,0.00,CLR,,0.00,WeatherDisplay:10.37,2013-03-21 01:34:00,
2013-03-20 21:35:00,25.9,20.3,29.72,NNW,338,1.1,0.0,79,0.00,CLR,,0.00,WeatherDisplay:10.37,2013-03-21 01:35:00,
2013-03-20 21:38:00,25.9,20.3,29.72,NW,315,1.4,0.0,79,0.00,CLR,,0.00,WeatherDisplay:10.37,2013-03-21 01:38:00,
2013-03-20 21:39:00,25.9,20.3,29.72,NNW,338,1.1,0.0,79,0.00,CLR,,0.00,WeatherDisplay:10.37,2013-03-21 01:39:00,
2013-03-20 21:40:00,25.9,20.3,29.72,NW,315,0.0,0.0,79,0.00,CLR,,0.00,WeatherDisplay:10.37,2013-03-21 01:40:00,
2013-03-20 21:43:00,25.7,20.1,29.72,NNW,338,1.1,0.0,79,0.00,CLR,,0.00,WeatherDisplay:10.37,2013-03-21 01:43:00,
2013-03-20 21:44:00,25.7,20.1,29.69,WNW,292,0.0,0.0,79,0.00,CLR,,0.00,WeatherDisplay:10.37,2013-03-21 01:44:00,
2013-03-20 21:45:00,25.7,20.1,29.69,WNW,292,0.0,0.0,79,0.00,CLR,,0.00,WeatherDisplay:10.37,2013-03-21 01:45:00,
2013-03-20 21:46:00,25.7,20.1,29.69,NNE,22,0.0,0.0,79,0.00,CLR,,0.00,WeatherDisplay:10.37,2013-03-21 01:46:00,
2013-03-20 21:48:00,25.7,20.1,29.69,NNE,22,1.1,0.0,79,0.00,CLR,,0.00,WeatherDisplay:10.37,2013-03-21 01:48:00,
2013-03-20 21:49:00,25.5,19.9,29.69,NNW,338,0.0,0.0,79,0.00,CLR,,0.00,WeatherDisplay:10.37,2013-03-21 01:49:00,
2013-03-20 21:50:00,25.5,19.9,29.69,NNE,22,0.9,0.0,79,0.00,CLR,,0.00,WeatherDisplay:10.37,2013-03-21 01:50:00,
2013-03-20 21:51:00,25.5,19.9,29.69,NNE,22,1.1,0.0,79,0.00,CLR,,0.00,WeatherDisplay:10.37,2013-03-21 01:51:00,
2013-03-20 21:53:00,25.5,19.6,29.69,NNW,338,0.0,0.0,78,0.00,CLR,,0.00,WeatherDisplay:10.37,2013-03-21 01:53:00,
2013-03-20 21:55:00,25.3,19.4,29.69,NNW,338,0.0,0.0,78,0.00,CLR,,0.00,WeatherDisplay:10.37,2013-03-21 01:55:00,
2013-03-20 21:56:00,25.3,19.4,29.69,North,0,0.0,0.0,78,0.00,CLR,,0.00,WeatherDisplay:10.37,2013-03-21 01:56:00,
2013-03-20 21:58:00,25.3,19.4,29.69,WSW,248,0.0,0.0,78,0.00,CLR,,0.00,WeatherDisplay:10.37,2013-03-21 01:58:00,
2013-03-20 22:00:00,25.3,19.4,29.69,NW,315,0.0,0.0,78,0.00,CLR,,0.00,WeatherDisplay:10.37,2013-03-21 02:00:00,
2013-03-20 22:01:00,25.3,19.4,29.69,NE,45,0.0,0.0,78,0.00,CLR,,0.00,WeatherDisplay:10.37,2013-03-21 02:01:00,
2013-03-20 22:03:00,25.2,19.3,29.69,NNW,338,0.9,0.0,78,0.00,CLR,,0.00,WeatherDisplay:10.37,2013-03-21 02:03:00,
2013-03-20 22:05:00,25.2,19.3,29.69,WNW,292,0.0,0.0,78,0.00,CLR,,0.00,WeatherDisplay:10.37,2013-03-21 02:05:00,
2013-03-20 22:06:00,25.3,19.4,29.69,NNW,338,2.3,0.0,78,0.00,CLR,,0.00,WeatherDisplay:10.37,2013-03-21 02:06:00,
2013-03-20 22:07:00,25.3,19.4,29.69,NW,315,0.0,0.0,78,0.00,CLR,,0.00,WeatherDisplay:10.37,2013-03-21 02:07:00,
2013-03-20 22:08:00,25.2,19.3,29.69,NNE,22,0.0,0.0,78,0.00,CLR,,0.00,WeatherDisplay:10.37,2013-03-21 02:08:00,
2013-03-20 22:10:00,25.2,19.3,29.69,NW,315,0.0,0.0,78,0.00,CLR,,0.00,WeatherDisplay:10.37,2013-03-21 02:10:00,
2013-03-20 22:12:00,25.2,19.3,29.69,NW,315,0.0,0.0,78,0.00,CLR,,0.00,WeatherDisplay:10.37,2013-03-21 02:12:00,
2013-03-20 22:13:00,25.2,19.3,29.69,NNW,338,0.0,0.0,78,0.00,CLR,,0.00,WeatherDisplay:10.37,2013-03-21 02:13:00,
2013-03-20 22:15:00,25.0,18.8,29.69,WNW,292,0.0,0.0,77,0.00,CLR,,0.00,WeatherDisplay:10.37,2013-03-21 02:15:00,
2013-03-20 22:17:00,25.0,18.8,29.69,NNW,338,0.0,0.0,77,0.00,CLR,,0.00,WeatherDisplay:10.37,2013-03-21 02:17:00,
2013-03-20 22:18:00,25.0,18.8,29.69,West,270,0.0,0.0,77,0.00,CLR,,0.00,WeatherDisplay:10.37,2013-03-21 02:18:00,
2013-03-20 22:20:00,25.0,18.8,29.69,NNW,338,0.0,0.0,77,0.00,CLR,,0.00,WeatherDisplay:10.37,2013-03-21 02:20:00,
2013-03-20 22:22:00,25.0,18.8,29.69,WNW,292,0.0,0.0,77,0.00,CLR,,0.00,WeatherDisplay:10.37,2013-03-21 02:22:00,
2013-03-20 22:23:00,25.0,18.8,29.69,NNW,338,0.0,0.0,77,0.00,CLR,,0.00,WeatherDisplay:10.37,2013-03-21 02:23:00,
2013-03-20 22:24:00,25.0,19.1,29.69,NNW,338,0.0,0.0,78,0.00,CLR,,0.00,WeatherDisplay:10.37,2013-03-21 02:24:00,
2013-03-20 22:25:00,25.0,19.1,29.69,NE,45,0.0,0.0,78,0.00,CLR,,0.00,WeatherDisplay:10.37,2013-03-21 02:25:00,
2013-03-20 22:27:00,25.0,18.8,29.69,North,0,3.6,0.0,77,0.00,CLR,,0.00,WeatherDisplay:10.37,2013-03-21 02:27:00,
2013-03-20 22:28:00,25.0,19.1,29.69,NNW,338,3.5,0.0,78,0.00,CLR,,0.00,WeatherDisplay:10.37,2013-03-21 02:28:00,
2013-03-20 22:29:00,25.0,19.1,29.69,WNW,292,3.5,0.0,78,0.00,CLR,,0.00,WeatherDisplay:10.37,2013-03-21 02:29:00,
2013-03-20 22:30:00,25.0,19.1,29.69,NNW,338,1.1,0.0,78,0.00,CLR,,0.00,WeatherDisplay:10.37,2013-03-21 02:30:00,
2013-03-20 22:32:00,25.0,19.1,29.69,WSW,248,0.0,0.0,78,0.00,CLR,,0.00,WeatherDisplay:10.37,2013-03-21 02:32:00,
2013-03-20 22:33:00,25.0,19.1,29.69,WNW,292,0.0,0.0,78,0.00,CLR,,0.00,WeatherDisplay:10.37,2013-03-21 02:33:00,
2013-03-20 22:34:00,25.0,19.1,29.69,SSW,202,1.1,0.0,78,0.00,CLR,,0.00,WeatherDisplay:10.37,2013-03-21 02:34:00,
2013-03-20 22:35:00,24.8,18.9,29.69,NNW,338,0.0,0.0,78,0.00,CLR,,0.00,WeatherDisplay:10.37,2013-03-21 02:35:00,
2013-03-20 22:37:00,24.8,18.9,29.69,WNW,292,1.1,0.0,78,0.00,CLR,,0.00,WeatherDisplay:10.37,2013-03-21 02:37:00,
2013-03-20 22:39:00,24.8,18.9,29.69,WSW,248,0.0,0.0,78,0.00,CLR,,0.00,WeatherDisplay:10.37,2013-03-21 02:39:00,
2013-03-20 22:40:00,24.8,18.9,29.69,WSW,248,0.0,0.0,78,0.00,CLR,,0.00,WeatherDisplay:10.37,2013-03-21 02:40:00,
2013-03-20 22:43:00,24.6,18.7,29.69,NNW,338,0.0,0.0,78,0.00,CLR,,0.00,WeatherDisplay:10.37,2013-03-21 02:43:00,
2013-03-20 22:44:00,24.6,18.7,29.69,NW,315,0.0,0.0,78,0.00,CLR,,0.00,WeatherDisplay:10.37,2013-03-21 02:44:00,
2013-03-20 22:45:00,24.6,18.7,29.69,NNW,338,1.1,0.0,78,0.00,CLR,,0.00,WeatherDisplay:10.37,2013-03-21 02:45:00,
2013-03-20 22:48:00,24.6,18.7,29.69,West,270,0.0,0.0,78,0.00,CLR,,0.00,WeatherDisplay:10.37,2013-03-21 02:48:00,
2013-03-20 22:49:00,24.4,18.6,29.69,NW,315,0.0,0.0,78,0.00,CLR,,0.00,WeatherDisplay:10.37,2013-03-21 02:49:00,
2013-03-20 22:50:00,24.4,18.6,29.69,NNE,22,0.0,0.0,78,0.00,CLR,,0.00,WeatherDisplay:10.37,2013-03-21 02:50:00,
2013-03-20 22:53:00,24.4,18.6,29.69,WNW,292,0.0,0.0,78,0.00,CLR,,0.00,WeatherDisplay:10.37,2013-03-21 02:53:00,
2013-03-20 22:54:00,24.4,18.6,29.69,NNW,338,0.0,0.0,78,0.00,CLR,,0.00,WeatherDisplay:10.37,2013-03-21 02:54:00,
2013-03-20 22:55:00,24.4,18.6,29.69,North,0,0.0,0.0,78,0.00,CLR,,0.00,WeatherDisplay:10.37,2013-03-21 02:55:00,
2013-03-20 22:58:00,24.4,18.6,29.69,West,270,0.0,0.0,78,0.00,CLR,,0.00,WeatherDisplay:10.37,2013-03-21 02:58:00,
2013-03-20 22:59:00,24.3,18.4,29.69,NNW,338,3.8,0.0,78,0.00,CLR,,0.00,WeatherDisplay:10.37,2013-03-21 02:59:00,
2013-03-20 23:00:00,24.3,18.4,29.69,NNW,338,3.5,0.0,78,0.00,CLR,,0.00,WeatherDisplay:10.37,2013-03-21 03:00:00,
2013-03-20 23:03:00,24.3,18.4,29.69,NW,315,0.0,0.0,78,0.00,CLR,,0.00,WeatherDisplay:10.37,2013-03-21 03:03:00,
2013-03-20 23:04:00,24.3,18.4,29.69,NNW,338,0.0,0.0,78,0.00,CLR,,0.00,WeatherDisplay:10.37,2013-03-21 03:04:00,
2013-03-20 23:05:00,24.1,18.2,29.69,WNW,292,0.0,0.0,78,0.00,CLR,,0.00,WeatherDisplay:10.37,2013-03-21 03:05:00,
2013-03-20 23:07:00,24.1,18.2,29.69,WNW,292,2.3,0.0,78,0.00,CLR,,0.00,WeatherDisplay:10.37,2013-03-21 03:07:00,
2013-03-20 23:08:00,24.1,18.2,29.69,SW,225,0.0,0.0,78,0.00,CLR,,0.00,WeatherDisplay:10.37,2013-03-21 03:08:00,
2013-03-20 23:09:00,24.1,18.2,29.69,NNW,338,0.0,0.0,78,0.00,CLR,,0.00,WeatherDisplay:10.37,2013-03-21 03:09:00,
2013-03-20 23:10:00,24.1,18.2,29.69,North,0,0.0,0.0,78,0.00,CLR,,0.00,WeatherDisplay:10.37,2013-03-21 03:10:00,
2013-03-20 23:13:00,24.1,18.2,29.69,North,0,0.0,0.0,78,0.00,CLR,,0.00,WeatherDisplay:10.37,2013-03-21 03:13:00,
2013-03-20 23:15:00,24.1,18.5,29.69,WNW,292,0.0,0.0,79,0.00,CLR,,0.00,WeatherDisplay:10.37,2013-03-21 03:15:00,
2013-03-20 23:18:00,23.9,18.3,29.69,NW,315,0.0,0.0,79,0.00,CLR,,0.00,WeatherDisplay:10.37,2013-03-21 03:18:00,
2013-03-20 23:19:00,23.9,18.3,29.69,WNW,292,0.0,0.0,79,0.00,CLR,,0.00,WeatherDisplay:10.37,2013-03-21 03:19:00,
2013-03-20 23:20:00,23.9,18.3,29.69,West,270,0.0,0.0,79,0.00,CLR,,0.00,WeatherDisplay:10.37,2013-03-21 03:20:00,
2013-03-20 23:23:00,23.7,17.9,29.69,NNW,338,0.0,0.0,78,0.00,CLR,,0.00,WeatherDisplay:10.37,2013-03-21 03:23:00,
2013-03-20 23:24:00,23.7,17.9,29.69,NNE,22,2.3,0.0,78,0.00,CLR,,0.00,WeatherDisplay:10.37,2013-03-21 03:24:00,
2013-03-20 23:25:00,23.7,18.2,29.69,NNW,338,2.3,0.0,79,0.00,CLR,,0.00,WeatherDisplay:10.37,2013-03-21 03:25:00,
2013-03-20 23:26:00,23.7,18.2,29.69,NNE,22,1.1,0.0,79,0.00,CLR,,0.00,WeatherDisplay:10.37,2013-03-21 03:26:00,
2013-03-20 23:28:00,23.7,18.2,29.69,NNW,338,0.0,0.0,79,0.00,CLR,,0.00,WeatherDisplay:10.37,2013-03-21 03:28:00,
2013-03-20 23:29:00,23.7,18.2,29.69,NNW,338,0.0,0.0,79,0.00,CLR,,0.00,WeatherDisplay:10.37,2013-03-21 03:29:00,
2013-03-20 23:30:00,23.7,18.2,29.69,West,270,0.0,0.0,79,0.00,CLR,,0.00,WeatherDisplay:10.37,2013-03-21 03:30:00,
2013-03-20 23:32:00,23.7,18.2,29.69,WSW,248,2.3,0.0,79,0.00,CLR,,0.00,WeatherDisplay:10.37,2013-03-21 03:32:00,
2013-03-20 23:33:00,23.5,18.0,29.69,West,270,0.0,0.0,79,0.00,CLR,,0.00,WeatherDisplay:10.37,2013-03-21 03:33:00,
2013-03-20 23:34:00,23.5,18.0,29.69,NNE,22,0.0,0.0,79,0.00,CLR,,0.00,WeatherDisplay:10.37,2013-03-21 03:34:00,
2013-03-20 23:35:00,23.5,18.0,29.69,NNE,22,0.0,0.0,79,0.00,CLR,,0.00,WeatherDisplay:10.37,2013-03-21 03:35:00,
2013-03-20 23:37:00,23.5,18.0,29.69,WNW,292,2.4,0.0,79,0.00,CLR,,0.00,WeatherDisplay:10.37,2013-03-21 03:37:00,
2013-03-20 23:38:00,23.5,18.0,29.69,SW,225,2.3,0.0,79,0.00,CLR,,0.00,WeatherDisplay:10.37,2013-03-21 03:38:00,
2013-03-20 23:39:00,23.5,18.0,29.69,NNE,22,2.3,0.0,79,0.00,CLR,,0.00,WeatherDisplay:10.37,2013-03-21 03:39:00,
2013-03-20 23:40:00,23.5,18.0,29.69,NNW,338,0.0,0.0,79,0.00,CLR,,0.00,WeatherDisplay:10.37,2013-03-21 03:40:00,
2013-03-20 23:43:00,23.5,18.0,29.69,NNW,338,0.0,0.0,79,0.00,CLR,,0.00,WeatherDisplay:10.37,2013-03-21 03:43:00,
2013-03-20 23:44:00,23.5,18.0,29.69,WSW,248,0.0,0.0,79,0.00,CLR,,0.00,WeatherDisplay:10.37,2013-03-21 03:44:00,
2013-03-20 23:45:00,23.5,18.0,29.69,NNE,22,0.0,0.0,79,0.00,CLR,,0.00,WeatherDisplay:10.37,2013-03-21 03:45:00,
2013-03-20 23:48:00,23.5,18.0,29.69,NNW,338,1.1,0.0,79,0.00,CLR,,0.00,WeatherDisplay:10.37,2013-03-21 03:48:00,
2013-03-20 23:49:00,23.4,17.8,29.69,ESE,112,1.1,0.0,79,0.00,CLR,,0.00,WeatherDisplay:10.37,2013-03-21 03:49:00,
2013-03-20 23:52:00,23.4,17.8,29.69,NNE,22,2.3,0.0,79,0.00,CLR,,0.00,WeatherDisplay:10.37,2013-03-21 03:52:00,
2013-03-20 23:53:00,23.4,17.5,29.69,West,270,0.0,0.0,78,0.00,CLR,,0.00,WeatherDisplay:10.37,2013-03-21 03:53:00,
2013-03-20 23:55:00,23.4,17.5,29.69,NNE,22,0.0,0.0,78,0.00,CLR,,0.00,WeatherDisplay:10.37,2013-03-21 03:55:00,
2013-03-20 23:57:00,23.4,17.5,29.69,WNW,292,0.0,0.0,78,0.00,CLR,,0.00,WeatherDisplay:10.37,2013-03-21 03:57:00,
2013-03-20 23:58:00,23.4,17.5,29.69,NNW,338,0.0,0.0,78,0.00,CLR,,0.00,WeatherDisplay:10.37,2013-03-21 03:58:00,
2013-03-20 23:59:00,23.4,17.5,29.69,WNW,292,0.0,0.0,78,0.00,CLR,,0.00,WeatherDisplay:10.37,2013-03-21 03:59:00,